DW7984 Weather Reports


Display with metric or nautical units.
time (UTC)temp
F
wind
direction
speed
MPH
gust
MPH
rain 1hr
in
rain 24hr
in
rain mn
in
humidity
%
barometer
mb
20260904123711 92 128 5.0 12.0 0.00 0.00 0.00 60 1054.6
20260904123701 92 204 5.0 12.0 0.00 0.00 0.00 60 1054.6
20260904123654 92 226 5.0 12.0 0.00 0.00 0.00 60 1054.6
20260904123421 92 216 5.0 12.0 0.00 0.00 0.00 60 1054.5
20260904123158 92 114 5.0 12.0 0.00 0.00 0.00 60 1054.6
20260904122923 92 241 5.0 12.0 0.00 0.00 0.00 59 1054.5
20260904122603 92 210 5.0 14.0 0.00 0.00 0.00 59 1054.7
20260904122502 92 213 5.0 14.0 0.00 0.00 0.00 58 1054.6
20260904122402 92 197 5.0 14.0 0.00 0.00 0.00 59 1054.7
20260904122301 92 207 5.0 14.0 0.00 0.00 0.00 58 1054.7
20260904122205 92 194 6.0 14.0 0.00 0.00 0.00 58 1054.7
20260904122136 92 185 6.0 14.0 0.00 0.00 0.00 58 1054.7
20260904122123 92 189 6.0 14.0 0.00 0.00 0.00 57 1054.7
20260904121802 92 189 5.0 14.0 0.00 0.00 0.00 57 1054.8
20260904121704 92 180 5.0 13.0 0.00 0.00 0.00 57 1054.8
20260904121648 92 152 5.0 12.0 0.00 0.00 0.00 57 1054.8
20260904121631 92 118 5.0 12.0 0.00 0.00 0.00 58 1054.8
20260904121353 92 196 4.0 12.0 0.00 0.00 0.00 57 1054.7
20260904121345 92 167 4.0 12.0 0.00 0.00 0.00 57 1054.8
20260904121327 92 169 4.0 12.0 0.00 0.00 0.00 57 1054.7
20260904121317 92 119 4.0 12.0 0.00 0.00 0.00 58 1054.7
20260904121052 92 181 4.0 12.0 0.00 0.00 0.00 57 1054.7
20260904120820 92 163 4.0 12.0 0.00 0.00 0.00 57 1054.7
20260904120810 92 125 5.0 12.0 0.00 0.00 0.00 56 1054.7
20260904120800 92 41 5.0 12.0 0.00 0.00 0.00 57 1054.7
20260904120754 92 125 5.0 12.0 0.00 0.00 0.00 57 1054.7
20260904120746 92 193 5.0 9.0 0.00 0.00 0.00 56 1054.8
20260904120734 92 177 5.0 9.0 0.00 0.00 0.00 56 1054.8
20260904120723 92 241 5.0 9.0 0.00 0.00 0.00 56 1054.8
20260904120714 92 195 5.0 9.0 0.00 0.00 0.00 55 1054.9
20260904120229 92 203 5.0 10.0 0.00 0.00 0.00 55 1054.8
20260904115733 92 138 5.0 10.0 0.00 0.00 0.00 54 1054.9
20260904115718 92 117 4.0 10.0 0.00 0.00 0.00 54 1054.8
20260904115712 92 137 4.0 10.0 0.00 0.00 0.00 53 1054.8
20260904115203 92 181 4.0 10.0 0.00 0.00 0.00 53 1054.9
20260904115153 92 91 4.0 10.0 0.00 0.00 0.00 53 1054.9
20260904115143 92 134 4.0 10.0 0.00 0.00 0.00 53 1054.9
20260904115137 92 93 4.0 10.0 0.00 0.00 0.00 53 1054.9
20260904115128 92 185 4.0 10.0 0.00 0.00 0.00 54 1054.9
20260904115120 92 180 4.0 10.0 0.00 0.00 0.00 54 1055.0
20260904115109 92 204 4.0 10.0 0.00 0.00 0.00 54 1055.0
20260904115055 92 241 4.0 10.0 0.00 0.00 0.00 54 1055.0
20260904115045 92 184 4.0 9.0 0.00 0.00 0.00 53 1054.9
20260904114338 92 190 4.0 12.0 0.00 0.00 0.00 55 1055.0
20260904114106 92 214 4.0 12.0 0.00 0.00 0.00 54 1054.9
20260904114059 92 214 4.0 12.0 0.00 0.00 0.00 54 1054.9
20260904113800 92 180 5.0 12.0 0.00 0.00 0.00 53 1055.0
20260904113751 92 144 5.0 12.0 0.00 0.00 0.00 53 1055.0
20260904113737 92 128 5.0 12.0 0.00 0.00 0.00 53 1055.0
20260904113513 92 196 5.0 12.0 0.00 0.00 0.00 53 1055.0
20260904113505 92 191 5.0 12.0 0.00 0.00 0.00 54 1055.0
20260904113450 92 170 5.0 12.0 0.00 0.00 0.00 53 1055.1
20260904113441 92 228 5.0 11.0 0.00 0.00 0.00 53 1055.0
20260904113205 92 199 5.0 11.0 0.00 0.00 0.00 53 1055.0
20260904112936 92 224 5.0 11.0 0.00 0.00 0.00 52 1055.0
20260904112928 92 135 5.0 11.0 0.00 0.00 0.00 53 1054.9
20260904112914 92 93 5.0 11.0 0.00 0.00 0.00 53 1055.0
20260904112905 92 199 6.0 11.0 0.00 0.00 0.00 52 1055.0
20260904112856 92 219 5.0 11.0 0.00 0.00 0.00 52 1055.0
20260904112849 92 245 5.0 11.0 0.00 0.00 0.00 52 1055.0
20260904112624 92 196 5.0 10.0 0.00 0.00 0.00 51 1055.1
20260904112610 92 139 4.0 9.0 0.00 0.00 0.00 51 1055.1
20260904112601 92 181 5.0 9.0 0.00 0.00 0.00 51 1055.1
20260904112551 92 187 5.0 10.0 0.00 0.00 0.00 51 1055.0
20260904112107 92 193 4.0 10.0 0.00 0.00 0.00 50 1055.1
20260904111832 92 183 4.0 10.0 0.00 0.00 0.00 51 1055.1
20260904111601 92 208 4.0 10.0 0.00 0.00 0.00 51 1055.1
20260904111553 92 133 4.0 10.0 0.00 0.00 0.00 51 1055.0
20260904111544 92 197 4.0 10.0 0.00 0.00 0.00 51 1055.1
20260904111528 92 197 4.0 10.0 0.00 0.00 0.00 51 1055.2
20260904111518 92 242 3.0 10.0 0.00 0.00 0.00 51 1055.0
20260904111252 92 208 3.0 8.0 0.00 0.00 0.00 51 1055.1
20260904111027 92 131 3.0 8.0 0.00 0.00 0.00 50 1055.1
20260904110750 92 266 3.0 9.0 0.00 0.00 0.00 51 1055.2
20260904110741 92 267 3.0 9.0 0.00 0.00 0.00 51 1055.2
20260904110250 92 180 3.0 9.0 0.00 0.00 0.00 52 1055.2
20260904110240 92 168 3.0 9.0 0.00 0.00 0.00 52 1055.2
20260904110218 92 214 4.0 9.0 0.00 0.00 0.00 51 1055.2
20260904105903 92 214 4.0 9.0 0.00 0.00 0.00 50 1055.2
20260904105757 91 198 4.0 9.0 0.00 0.00 0.00 50 1055.2
20260904105701 91 198 4.0 9.0 0.00 0.00 0.00 50 1055.3
20260904105556 91 197 3.0 9.0 0.00 0.00 0.00 51 1055.3
20260904105506 91 174 3.0 9.0 0.00 0.00 0.00 51 1055.3
20260904105455 91 186 3.0 9.0 0.00 0.00 0.00 51 1055.3
20260904105428 91 133 3.0 9.0 0.00 0.00 0.00 52 1055.3
20260904105420 91 242 4.0 9.0 0.00 0.00 0.00 51 1055.3
20260904105055 91 243 4.0 10.0 0.00 0.00 0.00 52 1055.3
20260904105006 91 264 4.0 10.0 0.00 0.00 0.00 52 1055.3
20260904104955 91 264 4.0 10.0 0.00 0.00 0.00 52 1055.3
20260904104855 91 167 4.0 10.0 0.00 0.00 0.00 52 1055.3
20260904104754 91 148 5.0 10.0 0.00 0.00 0.00 52 1055.3
20260904104652 91 205 5.0 10.0 0.00 0.00 0.00 52 1055.4
20260904104552 91 211 5.0 10.0 0.00 0.00 0.00 52 1055.4
20260904104504 91 211 5.0 10.0 0.00 0.00 0.00 51 1055.4
20260904104450 91 211 5.0 10.0 0.00 0.00 0.00 51 1055.4
20260904104350 91 211 5.0 10.0 0.00 0.00 0.00 51 1055.4
20260904104251 91 239 4.0 10.0 0.00 0.00 0.00 52 1055.5
20260904104150 90 237 4.0 10.0 0.00 0.00 0.00 51 1055.4
20260904104051 90 217 4.0 9.0 0.00 0.00 0.00 51 1055.4
20260904104005 90 232 4.0 9.0 0.00 0.00 0.00 51 1055.4
20260904103949 90 233 4.0 9.0 0.00 0.00 0.00 51 1055.4
20260904103849 90 233 4.0 9.0 0.00 0.00 0.00 51 1055.5
20260904103819 90 233 3.0 9.0 0.00 0.00 0.00 51 1055.5
20260904103810 90 222 3.0 8.0 0.00 0.00 0.00 52 1055.4
20260904103504 90 194 3.0 8.0 0.00 0.00 0.00 52 1055.5
20260904103442 90 195 3.0 8.0 0.00 0.00 0.00 52 1055.5
20260904103343 90 162 4.0 8.0 0.00 0.00 0.00 52 1055.5
20260904103243 90 165 4.0 8.0 0.00 0.00 0.00 52 1055.5
20260904103143 89 211 4.0 8.0 0.00 0.00 0.00 52 1055.5
20260904103038 89 210 4.0 8.0 0.00 0.00 0.00 54 1055.5
20260904103000 89 208 3.0 9.0 0.00 0.00 0.00 54 1055.5
20260904102938 89 210 3.0 9.0 0.00 0.00 0.00 54 1055.5
20260904102839 89 209 4.0 9.0 0.00 0.00 0.00 53 1055.4
20260904102739 89 209 4.0 9.0 0.00 0.00 0.00 53 1055.5
20260904102636 89 210 3.0 9.0 0.00 0.00 0.00 52 1055.5
20260904102535 89 142 3.0 9.0 0.00 0.00 0.00 52 1055.5
20260904102502 89 142 3.0 9.0 0.00 0.00 0.00 52 1055.5
20260904102451 89 143 3.0 9.0 0.00 0.00 0.00 52 1055.5
20260904102442 89 140 3.0 9.0 0.00 0.00 0.00 54 1055.5
20260904102434 89 212 3.0 9.0 0.00 0.00 0.00 54 1055.5
20260904102422 89 212 3.0 9.0 0.00 0.00 0.00 54 1055.5
20260904101934 89 133 3.0 7.0 0.00 0.00 0.00 55 1055.6
20260904101832 89 133 3.0 7.0 0.00 0.00 0.00 55 1055.5
20260904101731 89 132 3.0 7.0 0.00 0.00 0.00 55 1055.6
20260904101631 89 132 3.0 7.0 0.00 0.00 0.00 57 1055.5
20260904101531 89 130 3.0 7.0 0.00 0.00 0.00 55 1055.5
20260904101458 89 130 3.0 7.0 0.00 0.00 0.00 55 1055.5
20260904101450 89 130 3.0 7.0 0.00 0.00 0.00 55 1055.6
20260904101438 89 131 3.0 7.0 0.00 0.00 0.00 55 1055.6
20260904101426 89 133 3.0 7.0 0.00 0.00 0.00 55 1055.6
20260904101157 89 133 3.0 7.0 0.00 0.00 0.00 55 1055.6
20260904100830 89 94 3.0 7.0 0.00 0.00 0.00 56 1055.6
20260904100731 89 93 3.0 7.0 0.00 0.00 0.00 56 1055.6
20260904100628 89 115 2.0 7.0 0.00 0.00 0.00 56 1055.6
20260904100607 89 147 2.0 7.0 0.00 0.00 0.00 56 1055.6
20260904100557 89 147 2.0 7.0 0.00 0.00 0.00 55 1055.6
20260904100551 89 146 2.0 7.0 0.00 0.00 0.00 56 1055.6
20260904100227 89 147 2.0 5.0 0.00 0.00 0.00 57 1055.6
20260904100127 89 129 2.0 5.0 0.00 0.00 0.00 58 1055.6
20260904100026 88 129 2.0 5.0 0.00 0.00 0.00 57 1055.6
20260904095949 88 129 2.0 5.0 0.00 0.00 0.00 58 1055.6
20260904095941 88 129 2.0 5.0 0.00 0.00 0.00 58 1055.7
20260904095929 88 128 2.0 5.0 0.00 0.00 0.00 58 1055.7
20260904095918 88 128 2.0 5.0 0.00 0.00 0.00 58 1055.6
20260904095647 88 127 2.0 5.0 0.00 0.00 0.00 58 1055.7
20260904095344 88 127 2.0 5.0 0.00 0.00 0.00 59 1055.7
20260904095336 88 126 3.0 5.0 0.00 0.00 0.00 59 1055.7
20260904095326 87 126 3.0 7.0 0.00 0.00 0.00 59 1055.7
20260904095316 87 121 3.0 7.0 0.00 0.00 0.00 60 1055.7
20260904095306 87 117 3.0 7.0 0.00 0.00 0.00 59 1055.7
20260904095259 87 144 3.0 7.0 0.00 0.00 0.00 59 1055.7
20260904095248 87 152 3.0 7.0 0.00 0.00 0.00 60 1055.7
20260904095239 87 152 3.0 7.0 0.00 0.00 0.00 61 1055.6
20260904094735 87 152 3.0 8.0 0.00 0.00 0.00 60 1055.7
20260904094441 87 152 4.0 8.0 0.00 0.00 0.00 61 1055.7
20260904094415 87 152 4.0 8.0 0.00 0.00 0.00 62 1055.7
20260904094347 87 152 4.0 8.0 0.00 0.00 0.00 62 1055.7
20260904094105 86 152 4.0 8.0 0.00 0.00 0.00 62 1055.6
20260904094045 86 154 4.0 8.0 0.00 0.00 0.00 62 1055.7
20260904093706 86 112 4.0 8.0 0.00 0.00 0.00 62 1055.7
20260904093650 86 137 4.0 8.0 0.00 0.00 0.00 62 1055.7
20260904093639 86 137 4.0 8.0 0.00 0.00 0.00 62 1055.7
20260904093630 86 136 4.0 8.0 0.00 0.00 0.00 62 1055.7
20260904093306 86 95 4.0 8.0 0.00 0.00 0.00 62 1055.7
20260904093204 86 75 4.0 8.0 0.00 0.00 0.00 62 1055.7
20260904093105 86 120 4.0 7.0 0.00 0.00 0.00 63 1055.7
20260904093003 86 120 4.0 7.0 0.00 0.00 0.00 62 1055.7
20260904092938 86 120 4.0 7.0 0.00 0.00 0.00 62 1055.7
20260904092903 86 119 3.0 7.0 0.00 0.00 0.00 62 1055.7
20260904092803 86 118 3.0 7.0 0.00 0.00 0.00 63 1055.7
20260904092729 86 120 3.0 7.0 0.00 0.00 0.00 62 1055.7
20260904092716 86 118 3.0 7.0 0.00 0.00 0.00 63 1055.7
20260904092701 85 118 3.0 7.0 0.00 0.00 0.00 63 1055.7
20260904092651 85 118 3.0 7.0 0.00 0.00 0.00 63 1055.7
20260904092428 85 120 3.0 7.0 0.00 0.00 0.00 63 1055.7
20260904092141 85 119 3.0 7.0 0.00 0.00 0.00 63 1055.7
20260904092132 85 120 3.0 7.0 0.00 0.00 0.00 64 1055.7
20260904092122 85 121 3.0 7.0 0.00 0.00 0.00 64 1055.7
20260904091803 85 121 3.0 7.0 0.00 0.00 0.00 64 1055.8
20260904091702 85 121 3.0 7.0 0.00 0.00 0.00 64 1055.8
20260904091604 85 121 3.0 7.0 0.00 0.00 0.00 64 1055.8
20260904091503 85 121 3.0 7.0 0.00 0.00 0.00 64 1055.7
20260904091436 85 122 3.0 7.0 0.00 0.00 0.00 64 1055.7
20260904091403 85 121 3.0 7.0 0.00 0.00 0.00 64 1055.8
20260904091302 85 124 3.0 7.0 0.00 0.00 0.00 64 1055.8
20260904091208 85 116 4.0 7.0 0.00 0.00 0.00 65 1055.8
20260904091156 85 116 4.0 7.0 0.00 0.00 0.00 65 1055.8
20260904091143 85 115 4.0 7.0 0.00 0.00 0.00 64 1055.8
20260904091136 85 114 4.0 7.0 0.00 0.00 0.00 64 1055.8
20260904091125 85 114 4.0 7.0 0.00 0.00 0.00 64 1055.8
20260904090855 85 107 4.0 7.0 0.00 0.00 0.00 64 1055.8
20260904090627 85 107 3.0 7.0 0.00 0.00 0.00 65 1055.8
20260904090621 85 107 3.0 7.0 0.00 0.00 0.00 64 1055.8
20260904090252 85 110 3.0 7.0 0.00 0.00 0.00 65 1055.8
20260904090153 85 112 3.0 7.0 0.00 0.00 0.00 65 1055.7
20260904090051 84 115 3.0 6.0 0.00 0.00 0.00 65 1055.7
20260904085931 84 116 3.0 6.0 0.00 0.00 0.00 65 1055.8
20260904085849 84 116 3.0 6.0 0.00 0.00 0.00 65 1055.7
20260904085746 84 116 3.0 6.0 0.00 0.00 0.00 65 1055.8
20260904085641 84 116 3.0 6.0 0.00 0.00 0.00 65 1055.7
20260904085541 84 116 3.0 6.0 0.00 0.00 0.00 65 1055.7
20260904085442 84 116 3.0 6.0 0.00 0.00 0.00 65 1055.7
20260904085425 84 116 3.0 6.0 0.00 0.00 0.00 66 1055.7
20260904085338 84 116 2.0 4.0 0.00 0.00 0.00 66 1055.7
20260904085309 84 116 2.0 4.0 0.00 0.00 0.00 65 1055.7
20260904085305 84 116 2.0 4.0 0.00 0.00 0.00 65 1055.7
20260904084916 84 116 2.0 6.0 0.00 0.00 0.00 66 1055.7
20260904084833 84 116 2.0 6.0 0.00 0.00 0.00 66 1055.7
20260904084750 84 116 2.0 6.0 0.00 0.00 0.00 66 1055.7
20260904084742 83 116 2.0 6.0 0.00 0.00 0.00 65 1055.7
20260904084727 83 116 2.0 6.0 0.00 0.00 0.00 66 1055.7
20260904084711 83 116 2.0 6.0 0.00 0.00 0.00 67 1055.7
20260904084130 83 116 2.0 6.0 0.00 0.00 0.00 67 1055.8
20260904084029 83 115 3.0 6.0 0.00 0.00 0.00 67 1055.7
20260904083910 83 116 2.0 6.0 0.00 0.00 0.00 67 1055.8
20260904083828 83 116 2.0 6.0 0.00 0.00 0.00 68 1055.7
20260904083729 83 116 3.0 6.0 0.00 0.00 0.00 68 1055.8
20260904083639 83 114 3.0 6.0 0.00 0.00 0.00 68 1055.7
20260904083624 83 115 2.0 6.0 0.00 0.00 0.00 68 1055.8
20260904083615 83 115 3.0 6.0 0.00 0.00 0.00 67 1055.7
20260904083608 83 115 3.0 6.0 0.00 0.00 0.00 67 1055.8
20260904083559 83 115 3.0 6.0 0.00 0.00 0.00 67 1055.8
20260904083546 83 117 2.0 6.0 0.00 0.00 0.00 67 1055.7
20260904083538 83 117 2.0 6.0 0.00 0.00 0.00 68 1055.7
20260904083528 82 117 2.0 6.0 0.00 0.00 0.00 68 1055.7
20260904083520 82 117 3.0 6.0 0.00 0.00 0.00 68 1055.7
20260904083513 82 116 3.0 6.0 0.00 0.00 0.00 68 1055.7
20260904083504 82 116 3.0 6.0 0.00 0.00 0.00 68 1055.7
20260904083454 82 116 3.0 6.0 0.00 0.00 0.00 69 1055.7
20260904083443 82 117 3.0 6.0 0.00 0.00 0.00 70 1055.7
20260904083203 82 118 3.0 6.0 0.00 0.00 0.00 69 1055.7
20260904083155 82 116 3.0 6.0 0.00 0.00 0.00 69 1055.7
20260904083147 82 117 3.0 6.0 0.00 0.00 0.00 69 1055.7
20260904083140 82 117 3.0 6.0 0.00 0.00 0.00 69 1055.7
20260904082650 82 116 3.0 7.0 0.00 0.00 0.00 69 1055.7
20260904082642 82 116 3.0 7.0 0.00 0.00 0.00 69 1055.6
20260904082634 82 116 3.0 7.0 0.00 0.00 0.00 69 1055.6
20260904082623 82 114 3.0 7.0 0.00 0.00 0.00 69 1055.7
20260904082349 82 114 3.0 7.0 0.00 0.00 0.00 70 1055.6
20260904082341 82 114 3.0 7.0 0.00 0.00 0.00 69 1055.6
20260904081632 82 127 3.0 7.0 0.00 0.00 0.00 69 1055.6
20260904081352 82 129 3.0 5.0 0.00 0.00 0.00 69 1055.6
20260904081343 82 130 3.0 5.0 0.00 0.00 0.00 69 1055.7
20260904081115 82 129 3.0 5.0 0.00 0.00 0.00 70 1055.6
20260904081051 82 129 3.0 5.0 0.00 0.00 0.00 70 1055.6
20260904081032 82 130 3.0 4.0 0.00 0.00 0.00 70 1055.5
20260904080543 82 129 3.0 5.0 0.00 0.00 0.00 70 1055.6
20260904080053 82 129 3.0 5.0 0.00 0.00 0.00 70 1055.6
20260904075824 82 130 3.0 6.0 0.00 0.00 0.00 70 1055.5
20260904075501 82 130 3.0 6.0 0.00 0.00 0.00 69 1055.5
20260904075403 82 130 3.0 6.0 0.00 0.00 0.00 69 1055.5
20260904075301 82 130 2.0 6.0 0.00 0.00 0.00 69 1055.6
20260904075236 82 130 2.0 6.0 0.00 0.00 0.00 69 1055.6
20260904075225 82 159 2.0 6.0 0.00 0.00 0.00 69 1055.6
20260904075212 82 157 2.0 6.0 0.00 0.00 0.00 69 1055.6
20260904075157 82 157 1.0 6.0 0.00 0.00 0.00 69 1055.5
20260904075148 82 158 1.0 6.0 0.00 0.00 0.00 69 1055.5
20260904075138 82 208 0.0 4.0 0.00 0.00 0.00 70 1055.5
20260904074433 81 272 0.0 2.0 0.00 0.00 0.00 72 1055.5
20260904074422 80 272 0.0 2.0 0.00 0.00 0.00 72 1055.6
20260904074102 80 272 1.0 2.0 0.00 0.00 0.00 73 1055.6
20260904074040 80 272 1.0 2.0 0.00 0.00 0.00 73 1055.6
20260904074026 80 272 1.0 2.0 0.00 0.00 0.00 73 1055.5
20260904073701 79 272 1.0 2.0 0.00 0.00 0.00 74 1055.5
20260904073602 79 272 1.0 2.0 0.00 0.00 0.00 74 1055.5
20260904073501 79 272 1.0 3.0 0.00 0.00 0.00 74 1055.6
20260904073402 79 272 1.0 3.0 0.00 0.00 0.00 74 1055.6
20260904073308 79 272 1.0 3.0 0.00 0.00 0.00 75 1055.6
20260904073200 79 272 2.0 3.0 0.00 0.00 0.00 75 1055.5
20260904073102 79 272 2.0 3.0 0.00 0.00 0.00 75 1055.6
20260904073001 78 272 2.0 3.0 0.00 0.00 0.00 75 1055.6
20260904072905 78 272 2.0 3.0 0.00 0.00 0.00 75 1055.6
20260904072900 78 272 2.0 3.0 0.00 0.00 0.00 75 1055.6
20260904072801 78 272 2.0 3.0 0.00 0.00 0.00 75 1055.6
20260904072701 78 272 2.0 3.0 0.00 0.00 0.00 75 1055.5
20260904072603 78 272 2.0 3.0 0.00 0.00 0.00 75 1055.6
20260904072500 78 272 2.0 3.0 0.00 0.00 0.00 76 1055.5
20260904072446 78 272 2.0 3.0 0.00 0.00 0.00 76 1055.5
20260904072440 78 272 2.0 3.0 0.00 0.00 0.00 76 1055.5
20260904072426 77 272 2.0 3.0 0.00 0.00 0.00 76 1055.6
20260904072132 77 272 2.0 3.0 0.00 0.00 0.00 76 1055.6
20260904072123 77 272 2.0 3.0 0.00 0.00 0.00 77 1055.6
20260904072106 77 272 2.0 3.0 0.00 0.00 0.00 77 1055.6
20260904071800 76 272 2.0 3.0 0.00 0.00 0.00 77 1055.5
20260904071728 76 272 2.0 3.0 0.00 0.00 0.00 78 1055.6
20260904071718 76 272 2.0 3.0 0.00 0.00 0.00 77 1055.5
20260904071704 76 272 2.0 3.0 0.00 0.00 0.00 78 1055.6
20260904071650 76 272 2.0 3.0 0.00 0.00 0.00 78 1055.5
20260904071428 76 272 2.0 4.0 0.00 0.00 0.00 78 1055.6
20260904071102 75 272 3.0 4.0 0.00 0.00 0.00 78 1055.6
20260904071008 75 272 3.0 4.0 0.00 0.00 0.00 79 1055.6
20260904070953 75 272 3.0 4.0 0.00 0.00 0.00 79 1055.5
20260904070948 75 272 3.0 4.0 0.00 0.00 0.00 79 1055.5
20260904070939 75 272 3.0 4.0 0.00 0.00 0.00 79 1055.6
20260904070931 75 272 3.0 4.0 0.00 0.00 0.00 79 1055.6
20260904070920 74 272 3.0 6.0 0.00 0.00 0.00 79 1055.6
20260904070911 74 272 3.0 6.0 0.00 0.00 0.00 79 1055.6
20260904070855 74 272 3.0 6.0 0.00 0.00 0.00 80 1055.6
20260904070846 74 272 3.0 6.0 0.00 0.00 0.00 80 1055.6
20260904070613 74 272 3.0 6.0 0.00 0.00 0.00 80 1055.7
20260904070133 74 272 3.0 6.0 0.00 0.00 0.00 81 1055.6
20260904070125 73 272 3.0 6.0 0.00 0.00 0.00 81 1055.6
20260904070113 73 272 3.0 6.0 0.00 0.00 0.00 81 1055.6
20260904065605 73 272 3.0 6.0 0.00 0.00 0.00 81 1055.6
20260904065253 73 271 3.0 7.0 0.00 0.00 0.00 82 1055.6
20260904065153 73 271 3.0 7.0 0.00 0.00 0.00 82 1055.6
20260904065053 73 271 3.0 7.0 0.00 0.00 0.00 82 1055.7
20260904064953 72 271 3.0 7.0 0.00 0.00 0.00 82 1055.6
20260904064854 72 272 3.0 7.0 0.00 0.00 0.00 82 1055.6
20260904064850 72 271 3.0 7.0 0.00 0.00 0.00 82 1055.6
20260904064751 72 271 4.0 7.0 0.00 0.00 0.00 82 1055.7
20260904064718 72 271 4.0 7.0 0.00 0.00 0.00 82 1055.6
20260904064707 72 271 4.0 7.0 0.00 0.00 0.00 82 1055.7
20260904064344 72 271 4.0 8.0 0.00 0.00 0.00 83 1055.7
20260904064312 71 270 4.0 8.0 0.00 0.00 0.00 84 1055.7
20260904064304 71 270 4.0 8.0 0.00 0.00 0.00 84 1055.7
20260904063938 71 270 4.0 8.0 0.00 0.00 0.00 84 1055.7
20260904063850 71 270 4.0 8.0 0.00 0.00 0.00 84 1055.7
20260904063839 71 271 4.0 8.0 0.00 0.00 0.00 84 1055.7
20260904063739 71 270 3.0 8.0 0.00 0.00 0.00 84 1055.7
20260904063709 71 269 3.0 8.0 0.00 0.00 0.00 84 1055.7
20260904063659 71 268 3.0 8.0 0.00 0.00 0.00 85 1055.7
20260904063646 71 277 4.0 7.0 0.00 0.00 0.00 85 1055.6
20260904063632 71 276 4.0 7.0 0.00 0.00 0.00 85 1055.6
20260904063403 71 277 4.0 7.0 0.00 0.00 0.00 85 1055.7
20260904063038 70 276 4.0 7.0 0.00 0.00 0.00 85 1055.6
20260904062939 70 276 4.0 7.0 0.00 0.00 0.00 85 1055.6
20260904062838 70 276 4.0 7.0 0.00 0.00 0.00 86 1055.6
20260904062742 70 276 4.0 7.0 0.00 0.00 0.00 86 1055.6
20260904062637 70 276 4.0 7.0 0.00 0.00 0.00 86 1055.5
20260904062536 70 277 4.0 7.0 0.00 0.00 0.00 86 1055.6
20260904062455 70 276 4.0 6.0 0.00 0.00 0.00 86 1055.6
20260904062439 70 276 4.0 6.0 0.00 0.00 0.00 86 1055.5
20260904062426 70 276 4.0 6.0 0.00 0.00 0.00 87 1055.5
20260904061829 69 276 4.0 7.0 0.00 0.00 0.00 87 1055.5
20260904061728 69 275 4.0 7.0 0.00 0.00 0.00 87 1055.5
20260904061630 69 274 3.0 7.0 0.00 0.00 0.00 87 1055.5
20260904061609 69 275 3.0 7.0 0.00 0.00 0.00 88 1055.5
20260904061601 69 274 3.0 7.0 0.00 0.00 0.00 88 1055.6
20260904061550 69 274 3.0 7.0 0.00 0.00 0.00 88 1055.6
20260904061304 69 274 3.0 7.0 0.00 0.00 0.00 88 1055.6
20260904061256 69 274 3.0 6.0 0.00 0.00 0.00 88 1055.5
20260904060929 69 274 3.0 6.0 0.00 0.00 0.00 88 1055.5
20260904060842 69 273 3.0 6.0 0.00 0.00 0.00 88 1055.5
20260904060830 68 274 3.0 7.0 0.00 0.00 0.00 88 1055.5
20260904060749 68 273 4.0 7.0 0.00 0.00 0.00 88 1055.5
20260904060738 68 273 4.0 7.0 0.00 0.00 0.00 89 1055.5
20260904060722 68 273 3.0 7.0 0.00 0.00 0.00 89 1055.5
20260904060454 68 273 3.0 7.0 0.00 0.00 0.00 89 1055.5
20260904060447 68 274 3.0 7.0 0.00 0.00 0.00 89 1055.5
20260904060122 68 273 4.0 7.0 0.00 0.00 0.00 89 1055.5
20260904060021 68 273 4.0 7.0 0.00 0.00 0.00 89 1055.5
20260904055921 68 273 4.0 7.0 0.00 0.00 0.00 89 1055.4
20260904055842 68 273 4.0 7.0 0.00 0.00 0.00 89 1055.4
20260904055820 68 272 4.0 7.0 0.00 0.00 0.00 89 1055.4
20260904055718 68 272 4.0 7.0 0.00 0.00 0.00 89 1055.5
20260904055618 68 272 4.0 8.0 0.00 0.00 0.00 89 1055.5
20260904055515 68 272 4.0 8.0 0.00 0.00 0.00 89 1055.5
20260904055415 68 271 4.0 8.0 0.00 0.00 0.00 89 1055.5
20260904055315 68 272 4.0 8.0 0.00 0.00 0.00 89 1055.4
20260904055215 68 272 4.0 8.0 0.00 0.00 0.00 89 1055.4
20260904055113 68 273 4.0 8.0 0.00 0.00 0.00 89 1055.4
20260904055011 68 272 4.0 8.0 0.00 0.00 0.00 89 1055.4
20260904054911 68 273 4.0 8.0 0.00 0.00 0.00 89 1055.4
20260904054811 68 272 4.0 8.0 0.00 0.00 0.00 89 1055.4
20260904054708 68 272 4.0 8.0 0.00 0.00 0.00 89 1055.4
20260904054636 68 271 4.0 8.0 0.00 0.00 0.00 89 1055.4
20260904054626 68 271 4.0 8.0 0.00 0.00 0.00 89 1055.4
20260904054342 68 270 4.0 8.0 0.00 0.00 0.00 89 1055.3
20260904054305 68 270 4.0 8.0 0.00 0.00 0.00 89 1055.4
20260904054205 68 270 4.0 8.0 0.00 0.00 0.00 89 1055.4
20260904054105 68 270 4.0 8.0 0.00 0.00 0.00 89 1055.4
20260904054005 68 270 4.0 8.0 0.00 0.00 0.00 89 1055.4
20260904053942 68 270 4.0 8.0 0.00 0.00 0.00 89 1055.4
20260904053927 68 270 4.0 8.0 0.00 0.00 0.00 89 1055.4
20260904053633 68 270 4.0 7.0 0.00 0.00 0.00 89 1055.4
20260904053624 68 267 4.0 7.0 0.00 0.00 0.00 90 1055.4
20260904053606 68 267 4.0 7.0 0.00 0.00 0.00 90 1055.4
20260904053304 68 267 4.0 7.0 0.00 0.00 0.00 90 1055.4
20260904053240 68 266 4.0 7.0 0.00 0.00 0.00 90 1055.4
20260904053230 68 266 4.0 7.0 0.00 0.00 0.00 90 1055.4
20260904052906 68 244 3.0 7.0 0.00 0.00 0.00 90 1055.4
20260904052856 68 244 3.0 7.0 0.00 0.00 0.00 90 1055.4
20260904052848 68 243 3.0 6.0 0.00 0.00 0.00 90 1055.4
20260904052840 68 245 3.0 6.0 0.00 0.00 0.00 90 1055.4
20260904052831 68 243 3.0 6.0 0.00 0.00 0.00 90 1055.4
20260904052822 68 243 3.0 6.0 0.00 0.00 0.00 90 1055.4
20260904052809 68 243 3.0 6.0 0.00 0.00 0.00 90 1055.4
20260904052800 68 243 3.0 6.0 0.00 0.00 0.00 90 1055.4
20260904052311 68 243 2.0 6.0 0.00 0.00 0.00 90 1055.3
20260904052256 68 276 2.0 6.0 0.00 0.00 0.00 90 1055.3
20260904052026 68 278 2.0 4.0 0.00 0.00 0.00 90 1055.3
20260904051730 68 279 2.0 4.0 0.00 0.00 0.00 90 1055.3
20260904051721 67 278 2.0 4.0 0.00 0.00 0.00 90 1055.3
20260904051712 67 278 2.0 4.0 0.00 0.00 0.00 90 1055.3
20260904051702 67 278 2.0 4.0 0.00 0.00 0.00 90 1055.4
20260904051645 67 279 2.0 4.0 0.00 0.00 0.00 90 1055.4
20260904051637 67 279 2.0 4.0 0.00 0.00 0.00 90 1055.4
20260904051624 67 278 2.0 4.0 0.00 0.00 0.00 90 1055.4
20260904051610 67 279 2.0 4.0 0.00 0.00 0.00 90 1055.4
20260904051342 67 279 2.0 4.0 0.00 0.00 0.00 90 1055.4
20260904051336 67 280 2.0 4.0 0.00 0.00 0.00 90 1055.4
20260904051324 67 279 2.0 4.0 0.00 0.00 0.00 90 1055.4
20260904051313 67 280 3.0 4.0 0.00 0.00 0.00 90 1055.4
20260904050821 67 280 3.0 7.0 0.00 0.00 0.00 90 1055.4
20260904050813 67 280 4.0 7.0 0.00 0.00 0.00 90 1055.4
20260904050805 67 280 4.0 8.0 0.00 0.00 0.00 90 1055.4
20260904045804 67 280 5.0 9.0 0.00 0.00 0.00 90 1055.4
20260904045703 67 280 6.0 9.0 0.00 0.00 0.00 90 1055.4
20260904045604 67 280 6.0 9.0 0.00 0.00 0.00 90 1055.5
20260904045503 67 280 6.0 9.0 0.00 0.00 0.00 90 1055.4
20260904045440 67 280 6.0 9.0 0.00 0.00 0.00 90 1055.4
20260904045424 67 279 6.0 9.0 0.00 0.00 0.00 90 1055.4
20260904045138 67 256 6.0 9.0 0.00 0.00 0.00 90 1055.5
20260904045129 67 275 6.0 9.0 0.00 0.00 0.00 90 1055.5
20260904044842 67 268 6.0 9.0 0.00 0.00 0.00 90 1055.4
20260904044804 67 294 6.0 9.0 0.00 0.00 0.00 90 1055.5
20260904044703 67 254 6.0 9.0 0.00 0.00 0.00 90 1055.5
20260904044604 67 272 6.0 9.0 0.00 0.00 0.00 90 1055.4
20260904044504 67 270 6.0 9.0 0.00 0.00 0.00 90 1055.5
20260904044403 67 268 6.0 9.0 0.00 0.00 0.00 90 1055.4
20260904044345 67 276 6.0 9.0 0.00 0.00 0.00 90 1055.4
20260904044338 67 277 6.0 9.0 0.00 0.00 0.00 90 1055.5
20260904044330 67 299 6.0 9.0 0.00 0.00 0.00 90 1055.5
20260904044003 67 281 6.0 9.0 0.00 0.00 0.00 90 1055.5
20260904043904 67 269 5.0 9.0 0.00 0.00 0.00 90 1055.4
20260904043842 67 266 5.0 9.0 0.00 0.00 0.00 90 1055.4
20260904043803 67 288 5.0 9.0 0.00 0.00 0.00 90 1055.5
20260904043703 67 292 5.0 9.0 0.00 0.00 0.00 90 1055.4
20260904043604 67 288 5.0 9.0 0.00 0.00 0.00 90 1055.5
20260904043503 67 281 5.0 8.0 0.00 0.00 0.00 90 1055.4
20260904043403 67 282 5.0 8.0 0.00 0.00 0.00 90 1055.5
20260904043342 67 280 5.0 8.0 0.00 0.00 0.00 90 1055.5
20260904043303 67 283 5.0 8.0 0.00 0.00 0.00 90 1055.5
20260904043203 67 283 5.0 8.0 0.00 0.00 0.00 90 1055.5
20260904043126 67 281 5.0 7.0 0.00 0.00 0.00 90 1055.5
20260904043117 67 280 5.0 7.0 0.00 0.00 0.00 90 1055.5
20260904043101 67 281 5.0 8.0 0.00 0.00 0.00 90 1055.5
20260904042804 67 280 5.0 8.0 0.00 0.00 0.00 90 1055.5
20260904042724 67 280 5.0 8.0 0.00 0.00 0.00 90 1055.5
20260904042715 67 282 5.0 8.0 0.00 0.00 0.00 90 1055.5
20260904042701 67 281 5.0 8.0 0.00 0.00 0.00 90 1055.5
20260904042650 67 281 5.0 8.0 0.00 0.00 0.00 90 1055.5
20260904042426 67 280 5.0 8.0 0.00 0.00 0.00 90 1055.5
20260904042132 67 279 5.0 8.0 0.00 0.00 0.00 90 1055.5
20260904042123 67 278 5.0 8.0 0.00 0.00 0.00 90 1055.6
20260904042111 67 278 5.0 8.0 0.00 0.00 0.00 90 1055.6
20260904042100 67 278 5.0 8.0 0.00 0.00 0.00 90 1055.6
20260904042051 67 277 5.0 8.0 0.00 0.00 0.00 90 1055.6
20260904041503 67 277 5.0 8.0 0.00 0.00 0.00 90 1055.6
20260904041405 67 278 5.0 8.0 0.00 0.00 0.00 90 1055.6
20260904041342 67 276 5.0 8.0 0.00 0.00 0.00 90 1055.6
20260904041303 67 275 4.0 8.0 0.00 0.00 0.00 90 1055.6
20260904041204 67 276 4.0 7.0 0.00 0.00 0.00 90 1055.6
20260904041105 67 277 3.0 7.0 0.00 0.00 0.00 90 1055.6
20260904041003 67 278 3.0 6.0 0.00 0.00 0.00 90 1055.6
20260904040903 67 278 3.0 6.0 0.00 0.00 0.00 90 1055.6
20260904040842 67 278 3.0 6.0 0.00 0.00 0.00 90 1055.6
20260904040803 67 277 2.0 6.0 0.00 0.00 0.00 90 1055.6
20260904040703 67 277 2.0 6.0 0.00 0.00 0.00 90 1055.7
20260904040604 67 277 2.0 4.0 0.00 0.00 0.00 90 1055.7
20260904040503 67 278 1.0 4.0 0.00 0.00 0.00 90 1055.7
20260904040403 67 278 1.0 4.0 0.00 0.00 0.00 90 1055.7
20260904040341 67 277 1.0 4.0 0.00 0.00 0.00 90 1055.7
20260904040303 67 277 1.0 3.0 0.00 0.00 0.00 90 1055.7
20260904040203 67 277 1.0 3.0 0.00 0.00 0.00 90 1055.7
20260904040122 67 276 1.0 3.0 0.00 0.00 0.00 90 1055.7
20260904040110 67 277 1.0 3.0 0.00 0.00 0.00 90 1055.7
20260904040057 67 277 1.0 3.0 0.00 0.00 0.00 90 1055.7
20260904040046 67 277 1.0 3.0 0.00 0.00 0.00 90 1055.7
20260904035825 67 277 1.0 3.0 0.00 0.00 0.00 90 1055.7
20260904035811 67 277 1.0 3.0 0.00 0.00 0.00 90 1055.7
20260904035546 67 277 2.0 3.0 0.00 0.00 0.00 90 1055.7
20260904035529 67 277 2.0 3.0 0.00 0.00 0.00 90 1055.7
20260904035520 67 277 2.0 3.0 0.00 0.00 0.00 90 1055.7
20260904035034 67 277 2.0 3.0 0.00 0.00 0.00 90 1055.7
20260904035025 67 277 2.0 3.0 0.00 0.00 0.00 90 1055.7
20260904035009 67 277 2.0 3.0 0.00 0.00 0.00 90 1055.8
20260904035002 67 277 1.0 3.0 0.00 0.00 0.00 90 1055.8
20260904034953 67 277 1.0 3.0 0.00 0.00 0.00 90 1055.8
20260904034944 67 277 1.0 3.0 0.00 0.00 0.00 90 1055.8
20260904034715 67 277 1.0 3.0 0.00 0.00 0.00 90 1055.8
20260904034226 68 277 0.0 3.0 0.00 0.00 0.00 90 1055.8
20260904033901 68 277 1.0 4.0 0.00 0.00 0.00 90 1055.8
20260904033837 68 278 1.0 4.0 0.00 0.00 0.00 90 1055.8
20260904033801 68 277 1.0 4.0 0.00 0.00 0.00 90 1055.8
20260904033659 68 277 1.0 4.0 0.00 0.00 0.00 90 1056.0
20260904033559 68 278 1.0 4.0 0.00 0.00 0.00 90 1056.0
20260904033500 68 277 2.0 4.0 0.00 0.00 0.00 90 1056.0
20260904033336 68 277 2.0 4.0 0.00 0.00 0.00 90 1056.0
20260904033252 68 277 2.0 4.0 0.00 0.00 0.00 90 1056.0
20260904033228 68 277 2.0 4.0 0.00 0.00 0.00 90 1056.0
20260904033218 68 277 3.0 6.0 0.00 0.00 0.00 90 1056.0
20260904032832 68 278 3.0 6.0 0.00 0.00 0.00 90 1056.0
20260904032751 68 277 3.0 6.0 0.00 0.00 0.00 90 1055.8
20260904032653 68 277 3.0 6.0 0.00 0.00 0.00 90 1056.0
20260904032548 68 277 3.0 6.0 0.00 0.00 0.00 90 1056.0
20260904032447 68 277 3.0 6.0 0.00 0.00 0.00 90 1056.0
20260904032332 68 277 3.0 6.0 0.00 0.00 0.00 90 1056.1
20260904032247 68 277 3.0 6.0 0.00 0.00 0.00 90 1056.0
20260904032147 68 277 3.0 6.0 0.00 0.00 0.00 90 1056.0
20260904032047 68 277 3.0 6.0 0.00 0.00 0.00 90 1056.1
20260904031945 68 278 3.0 6.0 0.00 0.00 0.00 90 1056.1
20260904031833 68 277 3.0 6.0 0.00 0.00 0.00 90 1056.1
20260904031743 68 277 3.0 6.0 0.00 0.00 0.00 90 1056.1
20260904031705 68 277 3.0 6.0 0.00 0.00 0.00 90 1056.1
20260904031648 68 277 3.0 6.0 0.00 0.00 0.00 90 1056.1
20260904031636 68 277 3.0 6.0 0.00 0.00 0.00 90 1056.1
20260904031624 67 277 3.0 6.0 0.00 0.00 0.00 90 1056.1
20260904031357 67 277 3.0 6.0 0.00 0.00 0.00 90 1056.2
20260904031032 68 276 3.0 6.0 0.00 0.00 0.00 90 1056.2
20260904030930 68 276 3.0 6.0 0.00 0.00 0.00 90 1056.2
20260904030830 68 276 3.0 6.0 0.00 0.00 0.00 90 1056.2
20260904030729 68 276 3.0 6.0 0.00 0.00 0.00 90 1056.2
20260904030627 68 276 3.0 6.0 0.00 0.00 0.00 90 1056.2
20260904030606 68 276 4.0 6.0 0.00 0.00 0.00 90 1056.2
20260904030558 68 277 4.0 6.0 0.00 0.00 0.00 90 1056.2
20260904030328 68 276 4.0 6.0 0.00 0.00 0.00 90 1056.2
20260904030222 68 276 4.0 6.0 0.00 0.00 0.00 90 1056.2
20260904030154 68 276 4.0 6.0 0.00 0.00 0.00 90 1056.2
20260904030145 68 276 4.0 6.0 0.00 0.00 0.00 90 1056.2
20260904025821 68 274 4.0 6.0 0.00 0.00 0.00 90 1056.3
20260904025715 68 273 4.0 6.0 0.00 0.00 0.00 90 1056.3
20260904025614 68 257 3.0 6.0 0.00 0.00 0.00 90 1056.3
20260904025514 68 257 3.0 6.0 0.00 0.00 0.00 90 1056.2
20260904025413 68 256 3.0 6.0 0.00 0.00 0.00 90 1056.3
20260904025311 68 256 3.0 6.0 0.00 0.00 0.00 90 1056.4
20260904025204 68 256 3.0 6.0 0.00 0.00 0.00 90 1056.3
20260904025106 68 256 3.0 6.0 0.00 0.00 0.00 90 1056.4
20260904025004 68 256 2.0 6.0 0.00 0.00 0.00 90 1056.4
20260904024902 68 277 2.0 4.0 0.00 0.00 0.00 90 1056.4
20260904024829 68 278 2.0 4.0 0.00 0.00 0.00 90 1056.4
20260904024821 68 278 2.0 6.0 0.00 0.00 0.00 90 1056.4
20260904024808 68 278 2.0 6.0 0.00 0.00 0.00 90 1056.4
20260904024540 68 278 2.0 6.0 0.00 0.00 0.00 90 1056.4
20260904024519 68 278 2.0 6.0 0.00 0.00 0.00 90 1056.4
20260904024202 68 278 2.0 6.0 0.00 0.00 0.00 90 1056.4
20260904024103 68 278 2.0 6.0 0.00 0.00 0.00 90 1056.4
20260904024046 68 278 2.0 6.0 0.00 0.00 0.00 90 1056.4
20260904024033 68 279 2.0 6.0 0.00 0.00 0.00 90 1056.4
20260904023802 68 279 2.0 6.0 0.00 0.00 0.00 90 1056.4
20260904023701 68 279 2.0 4.0 0.00 0.00 0.00 90 1056.4
20260904023603 68 278 2.0 4.0 0.00 0.00 0.00 90 1056.5
20260904023500 68 278 2.0 4.0 0.00 0.00 0.00 90 1056.4
20260904023401 68 279 2.0 4.0 0.00 0.00 0.00 90 1056.4
20260904023339 68 278 2.0 4.0 0.00 0.00 0.00 90 1056.4
20260904023329 68 278 2.0 4.0 0.00 0.00 0.00 90 1056.4
20260904023319 68 280 2.0 4.0 0.00 0.00 0.00 90 1056.4
20260904023307 68 279 2.0 4.0 0.00 0.00 0.00 90 1056.4
20260904023258 68 278 2.0 4.0 0.00 0.00 0.00 90 1056.4
20260904022754 68 278 2.0 4.0 0.00 0.00 0.00 90 1056.4
20260904022652 68 279 2.0 4.0 0.00 0.00 0.00 90 1056.4
20260904022550 68 278 2.0 4.0 0.00 0.00 0.00 90 1056.5
20260904022450 68 279 3.0 6.0 0.00 0.00 0.00 90 1056.5
20260904022320 68 279 3.0 6.0 0.00 0.00 0.00 90 1056.5
20260904022310 68 278 3.0 6.0 0.00 0.00 0.00 90 1056.5
20260904022300 68 281 3.0 6.0 0.00 0.00 0.00 90 1056.5
20260904022242 68 278 3.0 6.0 0.00 0.00 0.00 90 1056.5
20260904022005 68 279 3.0 6.0 0.00 0.00 0.00 91 1056.5
20260904021638 68 278 3.0 6.0 0.00 0.00 0.00 91 1056.5
20260904021537 68 278 3.0 6.0 0.00 0.00 0.00 91 1056.5
20260904021518 68 278 3.0 6.0 0.00 0.00 0.00 91 1056.5
20260904021510 68 278 3.0 6.0 0.00 0.00 0.00 90 1056.5
20260904021503 67 276 3.0 6.0 0.00 0.00 0.00 90 1056.5
20260904021134 67 277 2.0 6.0 0.00 0.00 0.00 90 1056.5
20260904021034 67 276 2.0 4.0 0.00 0.00 0.00 90 1056.5
20260904020933 67 276 2.0 4.0 0.00 0.00 0.00 90 1056.5
20260904020805 67 276 2.0 4.0 0.00 0.00 0.00 90 1056.5
20260904020746 67 276 2.0 4.0 0.00 0.00 0.00 90 1056.5
20260904020739 67 277 2.0 4.0 0.00 0.00 0.00 90 1056.5
20260904020724 67 276 2.0 4.0 0.00 0.00 0.00 90 1056.5
20260904020450 67 294 2.0 3.0 0.00 0.00 0.00 90 1056.5
20260904020127 67 294 2.0 4.0 0.00 0.00 0.00 90 1056.5
20260904020027 67 294 2.0 4.0 0.00 0.00 0.00 90 1056.5
20260904015926 67 294 2.0 4.0 0.00 0.00 0.00 90 1056.6
20260904015826 68 294 2.0 5.0 0.00 0.00 0.00 89 1056.6
20260904015803 68 294 3.0 5.0 0.00 0.00 0.00 89 1056.6
20260904015727 68 294 3.0 5.0 0.00 0.00 0.00 89 1056.6
20260904015624 68 294 3.0 5.0 0.00 0.00 0.00 89 1056.6
20260904015525 68 294 3.0 5.0 0.00 0.00 0.00 89 1056.7
20260904015424 68 294 3.0 5.0 0.00 0.00 0.00 89 1056.7
20260904015359 68 294 3.0 5.0 0.00 0.00 0.00 89 1056.6
20260904015353 68 294 3.0 5.0 0.00 0.00 0.00 89 1056.8
20260904015345 68 294 3.0 5.0 0.00 0.00 0.00 89 1056.8
20260904015018 68 294 3.0 5.0 0.00 0.00 0.00 89 1056.7
20260904014919 68 294 3.0 5.0 0.00 0.00 0.00 89 1056.7
20260904014829 68 295 3.0 5.0 0.00 0.00 0.00 89 1056.7
20260904014817 68 294 3.0 5.0 0.00 0.00 0.00 89 1056.7
20260904014807 68 295 3.0 5.0 0.00 0.00 0.00 89 1056.8
20260904014757 68 294 3.0 5.0 0.00 0.00 0.00 89 1056.8
20260904014747 68 295 3.0 5.0 0.00 0.00 0.00 89 1056.8
20260904014519 68 295 3.0 5.0 0.00 0.00 0.00 90 1056.8
20260904014509 68 294 3.0 5.0 0.00 0.00 0.00 90 1056.8
20260904014239 68 295 3.0 5.0 0.00 0.00 0.00 90 1056.8
20260904014229 68 295 3.0 5.0 0.00 0.00 0.00 90 1056.8
20260904014219 68 294 3.0 4.0 0.00 0.00 0.00 90 1056.8
20260904013952 68 295 3.0 4.0 0.00 0.00 0.00 90 1056.8
20260904013725 68 294 3.0 7.0 0.00 0.00 0.00 89 1056.8
20260904013716 68 295 3.0 7.0 0.00 0.00 0.00 89 1056.8
20260904013701 68 295 3.0 7.0 0.00 0.00 0.00 89 1056.8
20260904013656 68 294 4.0 7.0 0.00 0.00 0.00 89 1056.8
20260904013643 68 294 4.0 7.0 0.00 0.00 0.00 89 1056.8
20260904013411 69 295 3.0 7.0 0.00 0.00 0.00 89 1056.8
20260904013140 69 295 3.0 7.0 0.00 0.00 0.00 89 1056.8
20260904013125 69 295 3.0 7.0 0.00 0.00 0.00 89 1056.8
20260904012633 69 278 3.0 6.0 0.00 0.00 0.00 89 1056.8
20260904012411 69 277 3.0 6.0 0.00 0.00 0.00 89 1056.8
20260904012401 69 278 4.0 6.0 0.00 0.00 0.00 89 1056.8
20260904012352 69 277 4.0 6.0 0.00 0.00 0.00 89 1056.9
20260904012341 69 277 4.0 6.0 0.00 0.00 0.00 90 1056.9
20260904012330 69 278 4.0 6.0 0.00 0.00 0.00 90 1056.9
20260904012316 69 278 4.0 6.0 0.00 0.00 0.00 90 1056.9
20260904012306 69 278 4.0 6.0 0.00 0.00 0.00 89 1056.9
20260904012035 69 277 3.0 6.0 0.00 0.00 0.00 89 1056.9
20260904012028 69 276 3.0 6.0 0.00 0.00 0.00 89 1056.9
20260904011755 69 276 2.0 6.0 0.00 0.00 0.00 89 1056.9
20260904011523 69 274 2.0 4.0 0.00 0.00 0.00 89 1057.0
20260904010816 69 274 2.0 4.0 0.00 0.00 0.00 89 1057.0
20260904010807 69 274 2.0 4.0 0.00 0.00 0.00 89 1057.0
20260904010751 69 274 2.0 3.0 0.00 0.00 0.00 89 1057.0
20260904010508 69 274 2.0 3.0 0.00 0.00 0.00 89 1057.1
20260904010148 69 274 2.0 3.0 0.00 0.00 0.00 89 1057.1
20260904010049 69 274 2.0 3.0 0.00 0.00 0.00 89 1057.1
20260904005948 69 274 2.0 3.0 0.00 0.00 0.00 89 1057.1
20260904005917 69 274 2.0 3.0 0.00 0.00 0.00 89 1057.1
20260904005908 69 274 2.0 3.0 0.00 0.00 0.00 89 1057.1
20260904005546 69 274 2.0 3.0 0.00 0.00 0.00 89 1057.2
20260904005444 69 274 2.0 3.0 0.00 0.00 0.00 89 1057.2
20260904005314 69 274 2.0 3.0 0.00 0.00 0.00 89 1057.2
20260904005308 69 274 2.0 3.0 0.00 0.00 0.00 89 1057.2
20260904005300 69 274 2.0 3.0 0.00 0.00 0.00 89 1057.2
20260904005245 69 274 2.0 3.0 0.00 0.00 0.00 89 1057.2
20260904005236 69 274 2.0 3.0 0.00 0.00 0.00 89 1057.2
20260904005226 69 274 2.0 3.0 0.00 0.00 0.00 89 1057.2
20260904004949 69 274 2.0 4.0 0.00 0.00 0.00 89 1057.1
20260904004941 69 274 2.0 4.0 0.00 0.00 0.00 89 1057.2
20260904004932 69 274 2.0 4.0 0.00 0.00 0.00 89 1057.2
20260904004924 69 274 2.0 4.0 0.00 0.00 0.00 89 1057.2
20260904004916 69 274 2.0 4.0 0.00 0.00 0.00 89 1057.1
20260904004909 69 275 2.0 4.0 0.00 0.00 0.00 89 1057.2
20260904004641 69 274 2.0 4.0 0.00 0.00 0.00 89 1057.2
20260904004627 69 274 2.0 4.0 0.00 0.00 0.00 89 1057.2
20260904004619 69 275 2.0 4.0 0.00 0.00 0.00 89 1057.2
20260904004134 69 274 2.0 4.0 0.00 0.00 0.00 89 1057.2
20260904004123 69 275 2.0 4.0 0.00 0.00 0.00 89 1057.2
20260904004109 69 274 2.0 4.0 0.00 0.00 0.00 89 1057.2
20260904004101 69 274 2.0 4.0 0.00 0.00 0.00 89 1057.2
20260904004044 69 274 2.0 4.0 0.00 0.00 0.00 89 1057.2
20260904003814 69 274 2.0 3.0 0.00 0.00 0.00 89 1057.2
20260904003546 69 274 2.0 3.0 0.00 0.00 0.00 89 1057.2
20260904003530 69 274 2.0 3.0 0.00 0.00 0.00 89 1057.2
20260904002829 69 274 2.0 4.0 0.00 0.00 0.00 89 1057.2
20260904002821 69 274 2.0 4.0 0.00 0.00 0.00 89 1057.2
20260904002804 69 273 2.0 6.0 0.00 0.00 0.00 89 1057.3
20260904002322 69 274 2.0 6.0 0.00 0.00 0.00 89 1057.3
20260904002307 69 274 3.0 6.0 0.00 0.00 0.00 89 1057.3
20260904002258 69 273 3.0 6.0 0.00 0.00 0.00 89 1057.3
20260904002033 69 274 3.0 6.0 0.00 0.00 0.00 89 1057.4
20260904002024 69 274 3.0 6.0 0.00 0.00 0.00 89 1057.4
20260904001747 69 273 3.0 6.0 0.00 0.00 0.00 89 1057.4
20260904001519 69 273 3.0 6.0 0.00 0.00 0.00 89 1057.3
20260904001214 69 273 3.0 6.0 0.00 0.00 0.00 89 1057.3
20260904001114 69 273 3.0 6.0 0.00 0.00 0.00 89 1057.3
20260904001014 69 273 3.0 6.0 0.00 0.00 0.00 89 1057.3
20260904000914 69 273 3.0 6.0 0.00 0.00 0.00 89 1057.3
20260904000802 69 272 3.0 6.0 0.00 0.00 0.00 89 1057.3
20260904000708 69 272 3.0 6.0 0.00 0.00 0.00 89 1057.3
20260904000618 69 273 3.0 6.0 0.00 0.00 0.00 89 1057.3
20260904000609 69 273 3.0 6.0 0.00 0.00 0.00 89 1057.3
20260904000600 69 272 3.0 6.0 0.00 0.00 0.00 89 1057.3
20260904000539 69 273 3.0 6.0 0.00 0.00 0.00 89 1057.3
20260904000530 69 272 3.0 6.0 0.00 0.00 0.00 89 1057.3
20260904000303 69 243 3.0 4.0 0.00 0.00 0.00 89 1057.4
20260903235808 69 242 2.0 4.0 0.00 0.00 0.00 90 1057.4
20260903235758 69 242 2.0 4.0 0.00 0.00 0.00 90 1057.4
20260903235743 69 242 2.0 4.0 0.00 0.00 0.00 90 1057.4
20260903235516 69 241 2.0 4.0 0.00 0.00 0.00 90 1057.4
20260903235503 69 242 2.0 4.0 0.00 0.00 0.00 90 1057.4
20260903235220 69 241 2.0 4.0 0.00 0.00 0.00 90 1057.4
20260903235208 69 241 2.0 4.0 0.00 0.00 0.00 90 1057.4
20260903234846 69 231 2.0 4.0 0.00 0.00 0.00 90 1057.5
20260903234802 69 231 2.0 4.0 0.00 0.00 0.00 89 1057.4
20260903234744 69 230 2.0 4.0 0.00 0.00 0.00 89 1057.4
20260903234657 69 231 2.0 4.0 0.00 0.00 0.00 89 1057.5
20260903234644 69 231 2.0 4.0 0.00 0.00 0.00 89 1057.5
20260903234632 69 231 2.0 4.0 0.00 0.00 0.00 89 1057.4
20260903234623 69 227 2.0 4.0 0.00 0.00 0.00 89 1057.4
20260903234612 69 228 2.0 4.0 0.00 0.00 0.00 89 1057.4
20260903234035 69 227 2.0 4.0 0.00 0.00 0.00 89 1057.4
20260903233934 69 228 2.0 4.0 0.00 0.00 0.00 89 1057.4
20260903233834 69 228 2.0 4.0 0.00 0.00 0.00 89 1057.4
20260903233805 69 228 2.0 4.0 0.00 0.00 0.00 89 1057.5
20260903233734 69 228 2.0 4.0 0.00 0.00 0.00 89 1057.5
20260903233632 69 228 2.0 4.0 0.00 0.00 0.00 89 1057.5
20260903233532 69 228 2.0 4.0 0.00 0.00 0.00 89 1057.4
20260903233432 69 228 2.0 4.0 0.00 0.00 0.00 89 1057.5
20260903233330 69 227 2.0 4.0 0.00 0.00 0.00 89 1057.5
20260903233304 69 228 3.0 4.0 0.00 0.00 0.00 89 1057.4
20260903233230 69 228 3.0 4.0 0.00 0.00 0.00 89 1057.4
20260903233133 69 228 3.0 4.0 0.00 0.00 0.00 89 1057.5
20260903233123 69 228 3.0 4.0 0.00 0.00 0.00 89 1057.5
20260903233115 69 228 2.0 4.0 0.00 0.00 0.00 89 1057.5
20260903233100 69 228 2.0 4.0 0.00 0.00 0.00 89 1057.5
20260903233053 69 227 2.0 4.0 0.00 0.00 0.00 89 1057.5
20260903233044 69 228 2.0 4.0 0.00 0.00 0.00 89 1057.5
20260903232806 69 227 2.0 4.0 0.00 0.00 0.00 89 1057.5
20260903232306 69 228 2.0 4.0 0.00 0.00 0.00 89 1057.5
20260903232224 69 228 2.0 4.0 0.00 0.00 0.00 89 1057.5
20260903232121 69 227 2.0 4.0 0.00 0.00 0.00 89 1057.5
20260903232025 69 228 2.0 3.0 0.00 0.00 0.00 89 1057.5
20260903231920 69 228 2.0 3.0 0.00 0.00 0.00 89 1057.5
20260903231835 69 227 2.0 3.0 0.00 0.00 0.00 89 1057.5
20260903231829 69 228 2.0 3.0 0.00 0.00 0.00 89 1057.5
20260903231821 69 227 2.0 3.0 0.00 0.00 0.00 89 1057.5
20260903231807 69 227 2.0 3.0 0.00 0.00 0.00 89 1057.5
20260903231539 69 227 2.0 3.0 0.00 0.00 0.00 89 1057.6
20260903231253 69 229 2.0 3.0 0.00 0.00 0.00 89 1057.6
20260903231212 69 227 2.0 3.0 0.00 0.00 0.00 89 1057.6
20260903231111 69 227 2.0 3.0 0.00 0.00 0.00 89 1057.6
20260903231006 70 227 2.0 3.0 0.00 0.00 0.00 89 1057.6
20260903230906 70 228 2.0 3.0 0.00 0.00 0.00 89 1057.6
20260903230806 70 227 2.0 3.0 0.00 0.00 0.00 89 1057.6
20260903230751 70 227 2.0 3.0 0.00 0.00 0.00 89 1057.6
20260903230706 70 227 2.0 3.0 0.00 0.00 0.00 89 1057.6
20260903230606 70 228 2.0 3.0 0.00 0.00 0.00 89 1057.6
20260903230506 70 228 2.0 3.0 0.00 0.00 0.00 89 1057.6
20260903230406 70 227 2.0 3.0 0.00 0.00 0.00 89 1057.6
20260903230306 70 228 2.0 3.0 0.00 0.00 0.00 89 1057.6
20260903230256 70 228 2.0 3.0 0.00 0.00 0.00 89 1057.6
20260903230247 70 227 2.0 3.0 0.00 0.00 0.00 89 1057.5
20260903230237 70 228 2.0 3.0 0.00 0.00 0.00 89 1057.6
20260903225902 70 227 2.0 3.0 0.00 0.00 0.00 89 1057.6
20260903225803 70 227 2.0 3.0 0.00 0.00 0.00 89 1057.6
20260903225750 70 227 2.0 3.0 0.00 0.00 0.00 89 1057.6
20260903225703 70 227 2.0 3.0 0.00 0.00 0.00 89 1057.6
20260903225604 70 227 1.0 3.0 0.00 0.00 0.00 89 1057.6
20260903225543 70 226 1.0 3.0 0.00 0.00 0.00 89 1057.6
20260903225534 70 227 1.0 3.0 0.00 0.00 0.00 89 1057.6
20260903225516 70 227 2.0 3.0 0.00 0.00 0.00 89 1057.6
20260903225509 70 227 2.0 3.0 0.00 0.00 0.00 89 1057.6
20260903225020 70 228 2.0 3.0 0.00 0.00 0.00 89 1057.6
20260903224750 70 227 2.0 3.0 0.00 0.00 0.00 89 1057.6
20260903224655 70 227 2.0 3.0 0.00 0.00 0.00 89 1057.6
20260903224555 70 227 2.0 3.0 0.00 0.00 0.00 89 1057.6
20260903224530 70 227 2.0 3.0 0.00 0.00 0.00 89 1057.6
20260903224518 70 227 2.0 3.0 0.00 0.00 0.00 89 1057.6
20260903224459 70 227 2.0 3.0 0.00 0.00 0.00 89 1057.6
20260903224145 70 227 2.0 3.0 0.00 0.00 0.00 89 1057.6
20260903224045 70 227 2.0 3.0 0.00 0.00 0.00 89 1057.6
20260903224009 70 227 2.0 3.0 0.00 0.00 0.00 89 1057.6
20260903223958 70 227 2.0 3.0 0.00 0.00 0.00 89 1057.6
20260903223939 70 227 2.0 4.0 0.00 0.00 0.00 89 1057.6
20260903223932 70 227 2.0 4.0 0.00 0.00 0.00 89 1057.6
20260903223921 70 227 2.0 4.0 0.00 0.00 0.00 89 1057.6
20260903223907 70 227 2.0 4.0 0.00 0.00 0.00 89 1057.6
20260903223859 70 228 2.0 4.0 0.00 0.00 0.00 89 1057.6
20260903223408 70 227 2.0 4.0 0.00 0.00 0.00 89 1057.6
20260903223121 70 227 2.0 4.0 0.00 0.00 0.00 89 1057.6
20260903223112 70 227 2.0 4.0 0.00 0.00 0.00 89 1057.6
20260903223101 70 227 2.0 4.0 0.00 0.00 0.00 89 1057.6
20260903222521 70 227 2.0 4.0 0.00 0.00 0.00 89 1057.6
20260903222422 70 227 2.0 4.0 0.00 0.00 0.00 89 1057.5
20260903222356 70 226 2.0 4.0 0.00 0.00 0.00 89 1057.6
20260903222341 70 227 2.0 4.0 0.00 0.00 0.00 89 1057.6
20260903222019 70 227 2.0 4.0 0.00 0.00 0.00 89 1057.6
20260903221916 70 227 2.0 4.0 0.00 0.00 0.00 89 1057.6
20260903221815 70 227 2.0 4.0 0.00 0.00 0.00 89 1057.6
20260903221745 70 226 2.0 4.0 0.00 0.00 0.00 89 1057.6
20260903221707 70 227 2.0 4.0 0.00 0.00 0.00 89 1057.6
20260903221607 70 227 2.0 4.0 0.00 0.00 0.00 89 1057.6
20260903221507 70 227 2.0 4.0 0.00 0.00 0.00 89 1057.6
20260903221407 70 227 2.0 4.0 0.00 0.00 0.00 89 1057.6
20260903221339 70 228 2.0 4.0 0.00 0.00 0.00 89 1057.6
20260903221331 70 227 2.0 4.0 0.00 0.00 0.00 89 1057.6
20260903221326 70 226 2.0 4.0 0.00 0.00 0.00 89 1057.6
20260903221003 70 227 2.0 4.0 0.00 0.00 0.00 88 1057.6
20260903220904 70 227 2.0 4.0 0.00 0.00 0.00 88 1057.6
20260903220804 71 227 2.0 3.0 0.00 0.00 0.00 88 1057.6
20260903220746 71 226 2.0 3.0 0.00 0.00 0.00 88 1057.6
20260903220704 71 226 2.0 3.0 0.00 0.00 0.00 88 1057.6
20260903220607 71 227 2.0 3.0 0.00 0.00 0.00 88 1057.7
20260903220503 71 227 2.0 3.0 0.00 0.00 0.00 88 1057.7
20260903220401 71 227 2.0 3.0 0.00 0.00 0.00 88 1057.7
20260903220243 71 227 2.0 3.0 0.00 0.00 0.00 88 1057.7
20260903220159 71 227 2.0 3.0 0.00 0.00 0.00 88 1057.6
20260903220059 71 227 2.0 3.0 0.00 0.00 0.00 88 1057.7
20260903215958 71 226 2.0 3.0 0.00 0.00 0.00 88 1057.7
20260903215858 71 227 2.0 3.0 0.00 0.00 0.00 88 1057.6
20260903215742 71 227 2.0 3.0 0.00 0.00 0.00 88 1057.7
20260903215658 71 227 2.0 3.0 0.00 0.00 0.00 88 1057.6
20260903215558 71 226 2.0 3.0 0.00 0.00 0.00 88 1057.7
20260903215536 71 226 2.0 3.0 0.00 0.00 0.00 88 1057.6
20260903215529 71 227 1.0 3.0 0.00 0.00 0.00 88 1057.6
20260903215512 71 227 1.0 3.0 0.00 0.00 0.00 88 1057.6
20260903215504 71 227 1.0 3.0 0.00 0.00 0.00 88 1057.7
20260903215449 71 226 1.0 3.0 0.00 0.00 0.00 88 1057.7
20260903214955 71 227 1.0 3.0 0.00 0.00 0.00 88 1057.7
20260903214650 71 226 1.0 3.0 0.00 0.00 0.00 88 1057.7
20260903214550 71 226 1.0 3.0 0.00 0.00 0.00 88 1057.7
20260903214450 71 226 1.0 3.0 0.00 0.00 0.00 88 1057.7
20260903214350 71 227 1.0 3.0 0.00 0.00 0.00 88 1057.7
20260903214239 71 227 1.0 3.0 0.00 0.00 0.00 88 1057.7
20260903214223 71 227 1.0 3.0 0.00 0.00 0.00 88 1057.6
20260903214211 71 227 1.0 3.0 0.00 0.00 0.00 88 1057.7
20260903213850 71 227 2.0 3.0 0.00 0.00 0.00 88 1057.6
20260903213752 71 227 2.0 4.0 0.00 0.00 0.00 87 1057.7
20260903213738 71 226 2.0 4.0 0.00 0.00 0.00 87 1057.7
20260903213714 71 226 2.0 4.0 0.00 0.00 0.00 87 1057.7
20260903213703 71 226 2.0 4.0 0.00 0.00 0.00 87 1057.7
20260903213651 71 227 2.0 4.0 0.00 0.00 0.00 87 1057.7
20260903213641 71 226 2.0 4.0 0.00 0.00 0.00 87 1057.7
20260903213631 71 227 2.0 4.0 0.00 0.00 0.00 87 1057.7
20260903213050 72 226 2.0 4.0 0.00 0.00 0.00 87 1057.7
20260903212950 72 226 2.0 4.0 0.00 0.00 0.00 88 1057.6
20260903212850 72 227 2.0 4.0 0.00 0.00 0.00 88 1057.7
20260903212737 72 227 2.0 4.0 0.00 0.00 0.00 88 1057.7
20260903212702 72 226 2.0 3.0 0.00 0.00 0.00 88 1057.6
20260903212650 72 226 2.0 3.0 0.00 0.00 0.00 88 1057.7
20260903212635 72 225 2.0 3.0 0.00 0.00 0.00 87 1057.7
20260903212353 72 225 2.0 3.0 0.00 0.00 0.00 87 1057.7
20260903212340 72 225 2.0 3.0 0.00 0.00 0.00 87 1057.7
20260903212107 72 224 2.0 3.0 0.00 0.00 0.00 87 1057.7
20260903211738 72 225 1.0 3.0 0.00 0.00 0.00 87 1057.6
20260903211714 72 225 1.0 3.0 0.00 0.00 0.00 87 1057.6
20260903211703 72 224 1.0 3.0 0.00 0.00 0.00 87 1057.6
20260903211651 72 225 1.0 3.0 0.00 0.00 0.00 87 1057.6
20260903211638 72 225 1.0 3.0 0.00 0.00 0.00 87 1057.6
20260903211414 72 224 1.0 2.0 0.00 0.00 0.00 87 1057.6
20260903211120 72 225 1.0 2.0 0.00 0.00 0.00 87 1057.7
20260903211107 72 225 1.0 2.0 0.00 0.00 0.00 87 1057.7
20260903210825 72 224 1.0 2.0 0.00 0.00 0.00 87 1057.7
20260903210820 72 225 1.0 2.0 0.00 0.00 0.00 87 1057.7
20260903210812 73 225 1.0 3.0 0.00 0.00 0.00 87 1057.6
20260903210445 73 225 1.0 3.0 0.00 0.00 0.00 87 1057.6
20260903210346 73 225 2.0 3.0 0.00 0.00 0.00 87 1057.7
20260903210246 73 225 2.0 3.0 0.00 0.00 0.00 87 1057.6
20260903210234 73 224 2.0 3.0 0.00 0.00 0.00 87 1057.6
20260903210146 73 224 2.0 3.0 0.00 0.00 0.00 87 1057.7
20260903210110 73 225 2.0 3.0 0.00 0.00 0.00 87 1057.7
20260903210050 73 225 2.0 3.0 0.00 0.00 0.00 87 1057.6
20260903210035 73 225 2.0 3.0 0.00 0.00 0.00 86 1057.7
20260903205813 73 225 1.0 3.0 0.00 0.00 0.00 86 1057.6
20260903205520 73 226 1.0 3.0 0.00 0.00 0.00 86 1057.7
20260903205512 73 226 1.0 3.0 0.00 0.00 0.00 86 1057.6
20260903205235 73 225 1.0 3.0 0.00 0.00 0.00 86 1057.6
20260903205146 73 225 0.0 3.0 0.00 0.00 0.00 86 1057.7
20260903205046 73 225 0.0 2.0 0.00 0.00 0.00 86 1057.7
20260903204946 73 225 0.0 2.0 0.00 0.00 0.00 86 1057.7
20260903204844 73 225 0.0 2.0 0.00 0.00 0.00 86 1057.7
20260903204731 73 225 0.0 0.0 0.00 0.00 0.00 86 1057.7
20260903204642 73 225 0.0 0.0 0.00 0.00 0.00 86 1057.7
20260903204541 73 224 0.0 0.0 0.00 0.00 0.00 86 1057.7
20260903204458 73 225 0.0 0.0 0.00 0.00 0.00 86 1057.7
20260903204448 73 224 0.0 0.0 0.00 0.00 0.00 86 1057.7
20260903204434 73 225 0.0 0.0 0.00 0.00 0.00 85 1057.7
20260903204428 73 226 0.0 0.0 0.00 0.00 0.00 85 1057.7
20260903204154 74 224 0.0 0.0 0.00 0.00 0.00 85 1057.7
20260903204142 74 224 0.0 0.0 0.00 0.00 0.00 85 1057.7
20260903204132 74 224 0.0 0.0 0.00 0.00 0.00 85 1057.6
20260903203906 74 225 0.0 0.0 0.00 0.00 0.00 85 1057.7
20260903203532 74 225 0.0 0.0 0.00 0.00 0.00 85 1057.7
20260903203431 74 225 0.0 0.0 0.00 0.00 0.00 85 1057.7
20260903203331 74 225 0.0 2.0 0.00 0.00 0.00 85 1057.7
20260903203241 74 226 0.0 2.0 0.00 0.00 0.00 85 1057.7
20260903203231 74 225 0.0 2.0 0.00 0.00 0.00 85 1057.7
20260903203133 74 225 0.0 2.0 0.00 0.00 0.00 85 1057.7
20260903203120 74 225 0.0 2.0 0.00 0.00 0.00 85 1057.6
20260903203112 74 225 0.0 2.0 0.00 0.00 0.00 84 1057.6
20260903203100 74 225 0.0 2.0 0.00 0.00 0.00 84 1057.7
20260903203049 74 224 0.0 2.0 0.00 0.00 0.00 84 1057.7
20260903203044 74 225 0.0 2.0 0.00 0.00 0.00 84 1057.7
20260903203036 74 225 0.0 2.0 0.00 0.00 0.00 84 1057.7
20260903203025 74 225 0.0 2.0 0.00 0.00 0.00 84 1057.7
20260903202525 74 224 0.0 2.0 0.00 0.00 0.00 84 1057.6
20260903202257 75 224 0.0 2.0 0.00 0.00 0.00 84 1057.6
20260903202021 75 225 0.0 2.0 0.00 0.00 0.00 84 1057.6
20260903202011 75 225 0.0 2.0 0.00 0.00 0.00 83 1057.6
20260903201951 75 225 0.0 2.0 0.00 0.00 0.00 83 1057.5
20260903201941 75 225 0.0 2.0 0.00 0.00 0.00 83 1057.5
20260903201710 75 225 0.0 2.0 0.00 0.00 0.00 84 1057.5
20260903201445 75 225 0.0 2.0 0.00 0.00 0.00 84 1057.5
20260903201438 75 224 0.0 2.0 0.00 0.00 0.00 84 1057.5
20260903201430 75 224 0.0 2.0 0.00 0.00 0.00 84 1057.5
20260903201419 75 225 0.0 2.0 0.00 0.00 0.00 84 1057.4
20260903201404 75 224 0.0 2.0 0.00 0.00 0.00 84 1057.4
20260903200918 75 225 0.0 2.0 0.00 0.00 0.00 84 1057.4
20260903200907 75 225 1.0 2.0 0.00 0.00 0.00 84 1057.5
20260903200844 75 225 1.0 2.0 0.00 0.00 0.00 84 1057.5
20260903200835 75 225 1.0 2.0 0.00 0.00 0.00 84 1057.5
20260903200825 75 225 1.0 2.0 0.00 0.00 0.00 84 1057.4
20260903200337 76 225 1.0 2.0 0.00 0.00 0.00 84 1057.5
20260903200106 76 225 1.0 2.0 0.00 0.00 0.00 83 1057.4
20260903195833 76 225 1.0 2.0 0.00 0.00 0.00 83 1057.4
20260903195504 76 225 1.0 2.0 0.00 0.00 0.00 83 1057.4
20260903195424 76 226 1.0 2.0 0.00 0.00 0.00 83 1057.4
20260903195412 76 225 1.0 2.0 0.00 0.00 0.00 83 1057.4
20260903195404 76 224 1.0 2.0 0.00 0.00 0.00 83 1057.4
20260903195352 76 225 1.0 2.0 0.00 0.00 0.00 83 1057.4
20260903195121 76 225 1.0 2.0 0.00 0.00 0.00 83 1057.4
20260903194759 76 225 1.0 3.0 0.00 0.00 0.00 83 1057.4
20260903194731 76 224 1.0 3.0 0.00 0.00 0.00 83 1057.4
20260903194659 76 225 1.0 3.0 0.00 0.00 0.00 83 1057.3
20260903194600 76 225 1.0 3.0 0.00 0.00 0.00 83 1057.4
20260903194457 76 224 1.0 3.0 0.00 0.00 0.00 83 1057.3
20260903194402 76 225 1.0 3.0 0.00 0.00 0.00 83 1057.4
20260903194257 76 224 1.0 4.0 0.00 0.00 0.00 83 1057.4
20260903194232 76 225 1.0 4.0 0.00 0.00 0.00 83 1057.4
20260903194157 76 225 1.0 4.0 0.00 0.00 0.00 83 1057.3
20260903194058 76 225 2.0 4.0 0.00 0.00 0.00 83 1057.3
20260903193953 76 225 2.0 5.0 0.00 0.00 0.00 82 1057.3
20260903193853 76 224 2.0 5.0 0.00 0.00 0.00 82 1057.3
20260903193751 76 227 2.0 5.0 0.00 0.00 0.00 82 1057.3
20260903193742 76 228 2.0 5.0 0.00 0.00 0.00 82 1057.3
20260903193735 76 228 2.0 5.0 0.00 0.00 0.00 82 1057.3
20260903193725 76 228 2.0 5.0 0.00 0.00 0.00 82 1057.3
20260903193717 76 228 2.0 5.0 0.00 0.00 0.00 82 1057.2
20260903193707 76 228 1.0 5.0 0.00 0.00 0.00 82 1057.2
20260903193145 76 227 1.0 5.0 0.00 0.00 0.00 82 1057.2
20260903193043 76 227 1.0 5.0 0.00 0.00 0.00 82 1057.2
20260903193012 76 234 1.0 5.0 0.00 0.00 0.00 82 1057.2
20260903193005 76 206 1.0 3.0 0.00 0.00 0.00 82 1057.1
20260903192947 76 206 1.0 4.0 0.00 0.00 0.00 82 1057.2
20260903192641 76 206 1.0 4.0 0.00 0.00 0.00 82 1057.1
20260903192541 76 206 1.0 4.0 0.00 0.00 0.00 81 1057.1
20260903192441 77 206 1.0 4.0 0.00 0.00 0.00 81 1057.1
20260903192339 77 206 1.0 4.0 0.00 0.00 0.00 81 1057.1
20260903192306 77 206 1.0 4.0 0.00 0.00 0.00 81 1057.0
20260903192255 77 207 1.0 4.0 0.00 0.00 0.00 81 1057.0
20260903192245 77 207 1.0 4.0 0.00 0.00 0.00 81 1057.0
20260903192230 77 207 1.0 4.0 0.00 0.00 0.00 81 1057.0
20260903192003 77 206 1.0 4.0 0.00 0.00 0.00 81 1057.0
20260903191731 77 206 1.0 4.0 0.00 0.00 0.00 81 1057.0
20260903191637 77 205 1.0 4.0 0.00 0.00 0.00 81 1057.0
20260903191536 77 206 1.0 4.0 0.00 0.00 0.00 81 1056.9
20260903191437 77 204 1.0 5.0 0.00 0.00 0.00 81 1056.9
20260903191335 77 204 1.0 5.0 0.00 0.00 0.00 81 1057.0
20260903191234 77 203 2.0 5.0 0.00 0.00 0.00 81 1056.9
20260903191227 77 204 2.0 5.0 0.00 0.00 0.00 81 1056.9
20260903191132 77 203 2.0 5.0 0.00 0.00 0.00 81 1057.0
20260903191033 77 204 2.0 5.0 0.00 0.00 0.00 81 1056.9
20260903191018 77 204 2.0 5.0 0.00 0.00 0.00 81 1056.9
20260903191003 77 204 2.0 5.0 0.00 0.00 0.00 81 1056.9
20260903190722 77 205 2.0 5.0 0.00 0.00 0.00 81 1056.9
20260903190642 77 204 2.0 5.0 0.00 0.00 0.00 80 1056.8
20260903190631 77 204 2.0 5.0 0.00 0.00 0.00 80 1056.9
20260903190623 77 166 2.0 5.0 0.00 0.00 0.00 80 1056.8
20260903190608 77 169 1.0 4.0 0.00 0.00 0.00 80 1056.8
20260903190557 77 169 1.0 4.0 0.00 0.00 0.00 80 1056.8
20260903190549 77 168 1.0 4.0 0.00 0.00 0.00 80 1056.8
20260903190543 77 168 1.0 4.0 0.00 0.00 0.00 80 1056.8
20260903190315 77 168 1.0 6.0 0.00 0.00 0.00 80 1056.8
20260903190037 77 168 2.0 6.0 0.00 0.00 0.00 80 1056.7
20260903185810 77 167 2.0 6.0 0.00 0.00 0.00 80 1056.7
20260903185543 77 172 2.0 6.0 0.00 0.00 0.00 80 1056.7
20260903185531 77 172 2.0 6.0 0.00 0.00 0.00 80 1056.7
20260903185519 77 171 2.0 6.0 0.00 0.00 0.00 80 1056.6
20260903185253 77 170 2.0 6.0 0.00 0.00 0.00 80 1056.6
20260903184925 77 176 2.0 6.0 0.00 0.00 0.00 79 1056.6
20260903184824 77 119 2.0 6.0 0.00 0.00 0.00 79 1056.6
20260903184724 77 117 2.0 6.0 0.00 0.00 0.00 79 1056.6
20260903184705 77 117 2.0 6.0 0.00 0.00 0.00 79 1056.5
20260903184623 77 111 2.0 6.0 0.00 0.00 0.00 79 1056.5
20260903184521 77 110 2.0 6.0 0.00 0.00 0.00 79 1056.6
20260903184421 77 110 2.0 6.0 0.00 0.00 0.00 79 1056.5
20260903184322 78 111 2.0 6.0 0.00 0.00 0.00 79 1056.5
20260903184305 78 110 2.0 6.0 0.00 0.00 0.00 79 1056.5
20260903184259 78 111 2.0 6.0 0.00 0.00 0.00 79 1056.5
20260903184252 78 93 2.0 6.0 0.00 0.00 0.00 79 1056.5
20260903184237 78 113 2.0 9.0 0.00 0.00 0.00 78 1056.5
20260903184226 78 108 2.0 9.0 0.00 0.00 0.00 78 1056.4
20260903184218 78 106 3.0 9.0 0.00 0.00 0.00 78 1056.4
20260903184152 78 138 3.0 9.0 0.00 0.00 0.00 78 1056.4
20260903184143 78 138 3.0 9.0 0.00 0.00 0.00 78 1056.4
20260903184132 78 137 3.0 9.0 0.00 0.00 0.00 78 1056.3
20260903183205 78 122 3.0 9.0 0.00 0.00 0.00 77 1056.3
20260903183150 78 135 3.0 6.0 0.00 0.00 0.00 77 1056.3
20260903183138 78 100 3.0 6.0 0.00 0.00 0.00 77 1056.3
20260903182905 78 106 2.0 6.0 0.00 0.00 0.00 77 1056.3
20260903182858 78 113 2.0 6.0 0.00 0.00 0.00 77 1056.3
20260903182631 78 146 2.0 5.0 0.00 0.00 0.00 76 1056.3
20260903182306 78 212 3.0 7.0 0.00 0.00 0.00 76 1056.2
20260903182246 78 203 3.0 7.0 0.00 0.00 0.00 76 1056.2
20260903182237 78 203 3.0 7.0 0.00 0.00 0.00 76 1056.2
20260903181905 79 204 3.0 7.0 0.00 0.00 0.00 76 1056.2
20260903181805 79 204 3.0 8.0 0.00 0.00 0.00 76 1056.2
20260903181705 79 218 4.0 8.0 0.00 0.00 0.00 76 1056.2
20260903181607 79 190 4.0 8.0 0.00 0.00 0.00 75 1056.3
20260903181505 79 189 4.0 8.0 0.00 0.00 0.00 75 1056.3
20260903181404 79 199 4.0 9.0 0.00 0.00 0.00 75 1056.3
20260903181305 79 123 4.0 9.0 0.00 0.00 0.00 75 1056.3
20260903181223 79 123 4.0 9.0 0.00 0.00 0.00 75 1056.3
20260903181214 79 123 4.0 9.0 0.00 0.00 0.00 75 1056.3
20260903181159 79 135 4.0 9.0 0.00 0.00 0.00 74 1056.2
20260903180933 79 99 4.0 9.0 0.00 0.00 0.00 74 1056.3
20260903180917 79 125 4.0 9.0 0.00 0.00 0.00 74 1056.2
20260903180607 80 108 3.0 9.0 0.00 0.00 0.00 73 1056.1
20260903180503 80 86 3.0 8.0 0.00 0.00 0.00 73 1056.1
20260903180404 80 111 3.0 9.0 0.00 0.00 0.00 73 1056.1
20260903180303 80 181 3.0 9.0 0.00 0.00 0.00 73 1056.1
20260903180212 80 193 4.0 9.0 0.00 0.00 0.00 73 1056.1
20260903180202 80 193 4.0 9.0 0.00 0.00 0.00 73 1056.1
20260903180029 80 211 4.0 12.0 0.00 0.00 0.00 73 1056.0
20260903180020 80 212 5.0 12.0 0.00 0.00 0.00 73 1056.0
20260903175708 80 193 5.0 12.0 0.00 0.00 0.00 72 1056.0
20260903175656 80 192 5.0 12.0 0.00 0.00 0.00 72 1056.0
20260903175556 80 163 6.0 13.0 0.00 0.00 0.00 72 1056.0
20260903175456 80 160 7.0 16.0 0.00 0.00 0.00 72 1056.1
20260903175432 80 239 7.0 16.0 0.00 0.00 0.00 72 1056.1
20260903175424 81 195 6.0 16.0 0.00 0.00 0.00 72 1056.0
20260903175413 81 183 7.0 16.0 0.00 0.00 0.00 72 1056.0
20260903175124 81 231 6.0 16.0 0.00 0.00 0.00 72 1056.0
20260903175116 81 189 6.0 16.0 0.00 0.00 0.00 71 1056.1
20260903174743 81 229 6.0 16.0 0.00 0.00 0.00 71 1056.1
20260903174702 81 224 6.0 16.0 0.00 0.00 0.00 71 1056.2
20260903174640 81 179 6.0 16.0 0.00 0.00 0.00 71 1056.2
20260903174616 81 199 5.0 16.0 0.00 0.00 0.00 71 1056.1
20260903174605 81 216 5.0 11.0 0.00 0.00 0.00 71 1056.2
20260903174323 81 243 4.0 11.0 0.00 0.00 0.00 71 1056.2
20260903174312 81 226 4.0 11.0 0.00 0.00 0.00 71 1056.3
20260903174307 82 198 4.0 11.0 0.00 0.00 0.00 71 1056.3
20260903173936 82 172 4.0 11.0 0.00 0.00 0.00 71 1056.2
20260903173836 82 220 4.0 11.0 0.00 0.00 0.00 70 1056.2
20260903173818 82 253 4.0 11.0 0.00 0.00 0.00 70 1056.2
20260903173805 82 200 4.0 11.0 0.00 0.00 0.00 71 1056.2
20260903173759 82 201 4.0 11.0 0.00 0.00 0.00 71 1056.2
20260903173437 82 208 4.0 11.0 0.00 0.00 0.00 70 1056.2
20260903173337 82 187 4.0 11.0 0.00 0.00 0.00 70 1056.2
20260903173239 82 187 4.0 11.0 0.00 0.00 0.00 70 1056.2
20260903173203 82 187 4.0 11.0 0.00 0.00 0.00 70 1056.1
20260903173135 82 189 4.0 11.0 0.00 0.00 0.00 70 1056.1
20260903173035 82 162 4.0 11.0 0.00 0.00 0.00 70 1056.1
20260903172932 82 157 4.0 11.0 0.00 0.00 0.00 70 1056.2
20260903172832 82 191 3.0 11.0 0.00 0.00 0.00 70 1056.2
20260903172733 82 234 3.0 11.0 0.00 0.00 0.00 70 1056.2
20260903172703 82 230 2.0 11.0 0.00 0.00 0.00 70 1056.2
20260903172632 82 208 2.0 11.0 0.00 0.00 0.00 70 1056.2
20260903172532 82 182 2.0 6.0 0.00 0.00 0.00 70 1056.1
20260903172432 82 170 3.0 11.0 0.00 0.00 0.00 70 1056.2
20260903172415 82 180 3.0 11.0 0.00 0.00 0.00 69 1056.2
20260903172404 82 182 3.0 13.0 0.00 0.00 0.00 69 1056.2
20260903172356 82 204 4.0 13.0 0.00 0.00 0.00 69 1056.2
20260903172033 82 205 4.0 13.0 0.00 0.00 0.00 70 1056.2
20260903172004 82 255 4.0 13.0 0.00 0.00 0.00 70 1056.2
20260903171956 82 255 5.0 13.0 0.00 0.00 0.00 70 1056.1
20260903171723 82 256 6.0 15.0 0.00 0.00 0.00 69 1056.2
20260903171710 82 255 6.0 15.0 0.00 0.00 0.00 69 1056.2
20260903171659 82 256 6.0 15.0 0.00 0.00 0.00 69 1056.3
20260903171651 82 226 6.0 15.0 0.00 0.00 0.00 69 1056.2
20260903171643 82 207 6.0 15.0 0.00 0.00 0.00 69 1056.2
20260903171633 82 140 6.0 15.0 0.00 0.00 0.00 69 1056.2
20260903171626 82 218 6.0 15.0 0.00 0.00 0.00 69 1056.2
20260903171618 82 156 6.0 15.0 0.00 0.00 0.00 69 1056.2
20260903171607 82 212 6.0 15.0 0.00 0.00 0.00 69 1056.2
20260903171556 82 201 7.0 15.0 0.00 0.00 0.00 69 1056.2
20260903171548 82 191 7.0 15.0 0.00 0.00 0.00 68 1056.2
20260903171101 83 179 7.0 15.0 0.00 0.00 0.00 68 1056.2
20260903170608 83 210 8.0 15.0 0.00 0.00 0.00 68 1056.3
20260903170556 83 228 7.0 15.0 0.00 0.00 0.00 68 1056.3
20260903170032 83 259 7.0 15.0 0.00 0.00 0.00 68 1056.3
20260903165920 83 140 7.0 14.0 0.00 0.00 0.00 67 1056.3
20260903165820 83 241 7.0 13.0 0.00 0.00 0.00 67 1056.3
20260903165720 83 187 8.0 14.0 0.00 0.00 0.00 67 1056.3
20260903165703 83 268 7.0 14.0 0.00 0.00 0.00 67 1056.4
20260903165620 83 214 7.0 14.0 0.00 0.00 0.00 67 1056.4
20260903165520 83 220 8.0 15.0 0.00 0.00 0.00 68 1056.3
20260903165452 83 228 8.0 15.0 0.00 0.00 0.00 68 1056.3
20260903165444 83 206 7.0 15.0 0.00 0.00 0.00 68 1056.3
20260903165202 82 253 7.0 15.0 0.00 0.00 0.00 68 1056.3
20260903165118 83 203 7.0 15.0 0.00 0.00 0.00 68 1056.3
20260903165026 83 220 7.0 15.0 0.00 0.00 0.00 68 1056.4
20260903165010 83 245 7.0 15.0 0.00 0.00 0.00 68 1056.3
20260903165000 83 173 7.0 15.0 0.00 0.00 0.00 67 1056.3
20260903164944 83 188 7.0 15.0 0.00 0.00 0.00 67 1056.4
20260903164719 83 203 7.0 15.0 0.00 0.00 0.00 67 1056.3
20260903164704 83 219 6.0 13.0 0.00 0.00 0.00 67 1056.4
20260903164655 83 169 6.0 13.0 0.00 0.00 0.00 67 1056.4
20260903164421 83 222 7.0 15.0 0.00 0.00 0.00 66 1056.3
20260903164118 83 176 6.0 15.0 0.00 0.00 0.00 66 1056.3
20260903164015 83 195 6.0 15.0 0.00 0.00 0.00 66 1056.3
20260903163915 83 156 6.0 15.0 0.00 0.00 0.00 66 1056.4
20260903163815 83 197 6.0 15.0 0.00 0.00 0.00 66 1056.3
20260903163716 83 222 6.0 15.0 0.00 0.00 0.00 66 1056.4
20260903163702 83 220 6.0 15.0 0.00 0.00 0.00 66 1056.3
20260903163616 83 181 6.0 15.0 0.00 0.00 0.00 66 1056.3
20260903163514 83 237 6.0 15.0 0.00 0.00 0.00 66 1056.4
20260903163416 83 197 5.0 15.0 0.00 0.00 0.00 65 1056.4
20260903163315 83 182 5.0 13.0 0.00 0.00 0.00 65 1056.3
20260903163226 83 174 5.0 13.0 0.00 0.00 0.00 66 1056.3
20260903163218 83 210 5.0 13.0 0.00 0.00 0.00 65 1056.3
20260903163203 83 209 6.0 13.0 0.00 0.00 0.00 66 1056.2
20260903163153 84 185 6.0 15.0 0.00 0.00 0.00 65 1056.3
20260903162920 84 268 6.0 15.0 0.00 0.00 0.00 66 1056.4
20260903162610 83 193 6.0 15.0 0.00 0.00 0.00 66 1056.3
20260903162510 83 301 6.0 15.0 0.00 0.00 0.00 66 1056.3
20260903162447 83 222 7.0 15.0 0.00 0.00 0.00 67 1056.3
20260903162439 83 210 7.0 15.0 0.00 0.00 0.00 66 1056.2
20260903162203 83 263 7.0 15.0 0.00 0.00 0.00 66 1056.3
20260903162146 83 211 7.0 15.0 0.00 0.00 0.00 67 1056.3
20260903162135 83 230 6.0 15.0 0.00 0.00 0.00 67 1056.3
20260903161811 83 214 6.0 16.0 0.00 0.00 0.00 67 1056.3
20260903161710 83 190 6.0 16.0 0.00 0.00 0.00 67 1056.3
20260903161702 83 188 7.0 16.0 0.00 0.00 0.00 67 1056.3
20260903161610 83 184 7.0 16.0 0.00 0.00 0.00 67 1056.3
20260903161513 83 179 6.0 16.0 0.00 0.00 0.00 67 1056.4
20260903161441 83 143 7.0 16.0 0.00 0.00 0.00 67 1056.4
20260903161433 83 183 7.0 16.0 0.00 0.00 0.00 67 1056.4
20260903161202 83 175 7.0 16.0 0.00 0.00 0.00 67 1056.3
20260903161106 83 175 7.0 16.0 0.00 0.00 0.00 67 1056.3
20260903161005 83 187 7.0 16.0 0.00 0.00 0.00 67 1056.4
20260903160902 83 183 7.0 16.0 0.00 0.00 0.00 67 1056.4
20260903160806 83 123 7.0 16.0 0.00 0.00 0.00 67 1056.4
20260903160712 83 224 7.0 16.0 0.00 0.00 0.00 67 1056.4
20260903160705 83 197 7.0 16.0 0.00 0.00 0.00 67 1056.4
20260903160607 83 104 7.0 16.0 0.00 0.00 0.00 67 1056.4
20260903160504 83 174 7.0 16.0 0.00 0.00 0.00 67 1056.4
20260903160445 83 174 7.0 16.0 0.00 0.00 0.00 67 1056.5
20260903160433 83 181 7.0 16.0 0.00 0.00 0.00 67 1056.5
20260903160203 83 141 6.0 16.0 0.00 0.00 0.00 67 1056.4
20260903160150 83 221 7.0 16.0 0.00 0.00 0.00 67 1056.4
20260903160139 83 154 6.0 16.0 0.00 0.00 0.00 68 1056.4
20260903160131 83 205 7.0 16.0 0.00 0.00 0.00 68 1056.4
20260903160122 83 166 7.0 16.0 0.00 0.00 0.00 68 1056.4
20260903160106 83 135 7.0 16.0 0.00 0.00 0.00 68 1056.4
20260903155845 83 209 7.0 16.0 0.00 0.00 0.00 68 1056.4
20260903155306 83 120 7.0 16.0 0.00 0.00 0.00 68 1056.5
20260903155213 83 233 8.0 16.0 0.00 0.00 0.00 68 1056.3
20260903155203 83 233 8.0 16.0 0.00 0.00 0.00 68 1056.3
20260903155100 83 225 7.0 17.0 0.00 0.00 0.00 68 1056.5
20260903155003 83 174 7.0 17.0 0.00 0.00 0.00 68 1056.4
20260903154900 83 186 7.0 17.0 0.00 0.00 0.00 68 1056.4
20260903154802 83 175 7.0 17.0 0.00 0.00 0.00 68 1056.4
20260903154711 83 212 7.0 17.0 0.00 0.00 0.00 68 1056.5
20260903154701 83 209 7.0 17.0 0.00 0.00 0.00 68 1056.5
20260903154603 83 137 7.0 17.0 0.00 0.00 0.00 68 1056.4
20260903154500 83 191 7.0 17.0 0.00 0.00 0.00 68 1056.4
20260903154400 83 177 7.0 17.0 0.00 0.00 0.00 67 1056.4
20260903154301 83 175 6.0 17.0 0.00 0.00 0.00 67 1056.4
20260903154212 83 172 6.0 17.0 0.00 0.00 0.00 68 1056.4
20260903154202 83 158 6.0 16.0 0.00 0.00 0.00 68 1056.4
20260903154101 83 164 6.0 16.0 0.00 0.00 0.00 67 1056.3
20260903154000 83 196 7.0 16.0 0.00 0.00 0.00 67 1056.4
20260903153900 83 179 7.0 16.0 0.00 0.00 0.00 67 1056.5
20260903153754 83 140 6.0 16.0 0.00 0.00 0.00 67 1056.4
20260903153706 83 170 6.0 16.0 0.00 0.00 0.00 66 1056.4
20260903153654 83 196 6.0 16.0 0.00 0.00 0.00 66 1056.4
20260903153631 83 137 6.0 16.0 0.00 0.00 0.00 66 1056.4
20260903153620 83 56 7.0 16.0 0.00 0.00 0.00 66 1056.3
20260903153336 83 137 7.0 17.0 0.00 0.00 0.00 66 1056.4
20260903153326 83 135 7.0 17.0 0.00 0.00 0.00 66 1056.4
20260903153320 83 131 7.0 17.0 0.00 0.00 0.00 66 1056.4
20260903153307 84 168 7.0 17.0 0.00 0.00 0.00 66 1056.4
20260903153259 84 158 7.0 17.0 0.00 0.00 0.00 66 1056.4
20260903153247 84 172 7.0 17.0 0.00 0.00 0.00 66 1056.4
20260903153238 84 184 7.0 17.0 0.00 0.00 0.00 66 1056.4
20260903152440 84 200 7.0 17.0 0.00 0.00 0.00 65 1056.5
20260903152338 84 104 7.0 17.0 0.00 0.00 0.00 65 1056.4
20260903152232 84 145 6.0 16.0 0.00 0.00 0.00 65 1056.5
20260903152201 84 162 6.0 16.0 0.00 0.00 0.00 64 1056.7
20260903152132 85 127 6.0 15.0 0.00 0.00 0.00 64 1056.7
20260903152032 85 151 6.0 15.0 0.00 0.00 0.00 64 1056.5
20260903151949 85 142 7.0 15.0 0.00 0.00 0.00 65 1056.4
20260903151937 85 174 6.0 15.0 0.00 0.00 0.00 65 1056.5
20260903151920 85 241 6.0 15.0 0.00 0.00 0.00 65 1056.4
20260903151632 85 221 6.0 15.0 0.00 0.00 0.00 65 1056.6
20260903151533 85 354 7.0 15.0 0.00 0.00 0.00 65 1056.5
20260903151432 85 249 7.0 13.0 0.00 0.00 0.00 65 1056.5
20260903151333 85 221 7.0 13.0 0.00 0.00 0.00 65 1056.5
20260903151232 85 161 8.0 13.0 0.00 0.00 0.00 65 1056.4
20260903151201 85 137 8.0 14.0 0.00 0.00 0.00 65 1056.5
20260903151132 85 143 8.0 14.0 0.00 0.00 0.00 65 1056.5
20260903151032 85 214 7.0 14.0 0.00 0.00 0.00 65 1056.5
20260903150932 85 185 7.0 14.0 0.00 0.00 0.00 64 1056.5
20260903150849 85 245 7.0 14.0 0.00 0.00 0.00 64 1056.5
20260903150840 85 193 7.0 14.0 0.00 0.00 0.00 64 1056.5
20260903150831 85 193 7.0 14.0 0.00 0.00 0.00 64 1056.5
20260903150820 85 159 7.0 14.0 0.00 0.00 0.00 64 1056.5
20260903150553 85 157 6.0 14.0 0.00 0.00 0.00 63 1056.6
20260903150231 85 192 6.0 14.0 0.00 0.00 0.00 64 1056.5
20260903150201 85 216 6.0 13.0 0.00 0.00 0.00 64 1056.5
20260903150128 85 195 6.0 13.0 0.00 0.00 0.00 64 1056.5
20260903150026 85 201 6.0 13.0 0.00 0.00 0.00 64 1056.4
20260903145924 85 212 5.0 13.0 0.00 0.00 0.00 64 1056.5
20260903145824 85 170 6.0 13.0 0.00 0.00 0.00 64 1056.5
20260903145727 85 249 6.0 17.0 0.00 0.00 0.00 64 1056.5
20260903145700 85 208 7.0 17.0 0.00 0.00 0.00 64 1056.5
20260903145624 85 176 7.0 17.0 0.00 0.00 0.00 64 1056.5
20260903145523 85 225 7.0 17.0 0.00 0.00 0.00 64 1056.4
20260903145450 85 158 7.0 17.0 0.00 0.00 0.00 64 1056.5
20260903145442 85 191 7.0 17.0 0.00 0.00 0.00 64 1056.5
20260903145159 85 186 6.0 17.0 0.00 0.00 0.00 64 1056.5
20260903145121 85 231 6.0 17.0 0.00 0.00 0.00 64 1056.5
20260903145022 85 260 6.0 17.0 0.00 0.00 0.00 64 1056.6
20260903144920 85 204 6.0 17.0 0.00 0.00 0.00 63 1056.5
20260903144820 85 200 7.0 17.0 0.00 0.00 0.00 63 1056.6
20260903144721 85 208 7.0 17.0 0.00 0.00 0.00 62 1056.6
20260903144701 85 192 7.0 17.0 0.00 0.00 0.00 62 1056.5
20260903144620 85 272 7.0 17.0 0.00 0.00 0.00 62 1056.5
20260903144520 85 225 7.0 17.0 0.00 0.00 0.00 62 1056.6
20260903144419 85 198 7.0 17.0 0.00 0.00 0.00 62 1056.5
20260903144312 85 145 7.0 17.0 0.00 0.00 0.00 62 1056.5
20260903144241 85 235 8.0 17.0 0.00 0.00 0.00 62 1056.6
20260903144232 85 235 8.0 17.0 0.00 0.00 0.00 62 1056.6
20260903144225 85 148 8.0 17.0 0.00 0.00 0.00 62 1056.6
20260903144215 85 173 9.0 17.0 0.00 0.00 0.00 62 1056.6
20260903144206 85 165 8.0 17.0 0.00 0.00 0.00 62 1056.6
20260903144158 86 210 8.0 17.0 0.00 0.00 0.00 61 1056.7
20260903144146 86 159 8.0 17.0 0.00 0.00 0.00 61 1056.7
20260903143920 86 166 7.0 17.0 0.00 0.00 0.00 61 1056.7
20260903143909 86 179 7.0 17.0 0.00 0.00 0.00 61 1056.7
20260903143900 86 193 7.0 17.0 0.00 0.00 0.00 60 1056.6
20260903143111 87 172 7.0 15.0 0.00 0.00 0.00 59 1056.6
20260903143010 87 135 6.0 15.0 0.00 0.00 0.00 60 1056.5
20260903142911 87 256 6.0 15.0 0.00 0.00 0.00 59 1056.6
20260903142811 87 237 6.0 15.0 0.00 0.00 0.00 59 1056.6
20260903142712 87 224 6.0 15.0 0.00 0.00 0.00 59 1056.6
20260903142656 87 195 6.0 15.0 0.00 0.00 0.00 59 1056.6
20260903142610 87 270 6.0 15.0 0.00 0.00 0.00 59 1056.6
20260903142509 87 172 7.0 15.0 0.00 0.00 0.00 59 1056.6
20260903142409 87 225 7.0 15.0 0.00 0.00 0.00 58 1056.7
20260903142309 87 216 7.0 15.0 0.00 0.00 0.00 57 1056.6
20260903142209 87 315 7.0 15.0 0.00 0.00 0.00 57 1056.7
20260903142155 87 307 7.0 15.0 0.00 0.00 0.00 57 1056.7
20260903142109 87 185 7.0 17.0 0.00 0.00 0.00 58 1056.6
20260903142009 87 209 7.0 17.0 0.00 0.00 0.00 58 1056.6
20260903141909 87 210 8.0 17.0 0.00 0.00 0.00 58 1056.6
20260903141854 87 235 8.0 17.0 0.00 0.00 0.00 57 1056.6
20260903141839 87 243 9.0 17.0 0.00 0.00 0.00 56 1056.6
20260903141833 87 231 9.0 17.0 0.00 0.00 0.00 56 1056.6
20260903141509 87 192 8.0 17.0 0.00 0.00 0.00 56 1056.8
20260903141404 87 168 8.0 17.0 0.00 0.00 0.00 55 1056.6
20260903141340 88 273 8.0 17.0 0.00 0.00 0.00 55 1056.6
20260903141330 88 211 8.0 17.0 0.00 0.00 0.00 55 1056.6
20260903141323 88 187 8.0 17.0 0.00 0.00 0.00 55 1056.6
20260903141004 88 191 7.0 17.0 0.00 0.00 0.00 54 1056.7
20260903140904 88 200 6.0 17.0 0.00 0.00 0.00 54 1056.7
20260903140806 88 222 6.0 17.0 0.00 0.00 0.00 54 1056.6
20260903140704 88 212 6.0 14.0 0.00 0.00 0.00 54 1056.7
20260903140639 88 204 6.0 14.0 0.00 0.00 0.00 54 1056.7
20260903140604 88 252 6.0 14.0 0.00 0.00 0.00 54 1056.7
20260903140539 88 259 6.0 14.0 0.00 0.00 0.00 53 1056.6
20260903140531 88 217 7.0 14.0 0.00 0.00 0.00 53 1056.6
20260903140205 88 203 7.0 14.0 0.00 0.00 0.00 53 1056.6
20260903140135 88 237 7.0 14.0 0.00 0.00 0.00 53 1056.6
20260903140107 88 204 7.0 14.0 0.00 0.00 0.00 53 1056.6
20260903140004 88 201 7.0 14.0 0.00 0.00 0.00 52 1056.6
20260903135904 88 234 7.0 14.0 0.00 0.00 0.00 51 1056.7
20260903135804 88 224 7.0 14.0 0.00 0.00 0.00 51 1056.7
20260903135705 88 188 7.0 14.0 0.00 0.00 0.00 51 1056.8
20260903135635 88 216 7.0 14.0 0.00 0.00 0.00 51 1056.8
20260903135606 88 194 7.0 14.0 0.00 0.00 0.00 51 1056.7
20260903135504 88 264 8.0 16.0 0.00 0.00 0.00 51 1056.7
20260903135403 88 162 8.0 16.0 0.00 0.00 0.00 50 1056.8
20260903135306 88 200 8.0 16.0 0.00 0.00 0.00 49 1056.6
20260903135203 88 230 8.0 16.0 0.00 0.00 0.00 49 1056.6
20260903135135 88 241 8.0 16.0 0.00 0.00 0.00 49 1056.6
20260903135103 88 214 8.0 16.0 0.00 0.00 0.00 49 1056.7
20260903135002 89 232 8.0 16.0 0.00 0.00 0.00 48 1056.6
20260903134941 89 222 8.0 16.0 0.00 0.00 0.00 48 1056.6
20260903134929 89 227 7.0 16.0 0.00 0.00 0.00 49 1056.8
20260903134639 89 172 7.0 16.0 0.00 0.00 0.00 49 1056.8
20260903134632 89 173 7.0 16.0 0.00 0.00 0.00 48 1056.8
20260903134621 89 282 7.0 15.0 0.00 0.00 0.00 48 1056.9
20260903134300 89 222 6.0 14.0 0.00 0.00 0.00 48 1056.8
20260903134200 89 235 6.0 14.0 0.00 0.00 0.00 49 1056.8
20260903134136 89 218 6.0 14.0 0.00 0.00 0.00 49 1056.8
20260903134100 89 251 6.0 14.0 0.00 0.00 0.00 49 1056.8
20260903134000 89 226 7.0 14.0 0.00 0.00 0.00 49 1056.8
20260903133923 89 206 7.0 14.0 0.00 0.00 0.00 48 1056.9
20260903133914 89 205 7.0 14.0 0.00 0.00 0.00 47 1056.8
20260903133852 89 206 7.0 14.0 0.00 0.00 0.00 46 1056.9
20260903133625 89 194 7.0 14.0 0.00 0.00 0.00 47 1056.9
20260903133258 89 155 6.0 14.0 0.00 0.00 0.00 46 1056.9
20260903133158 89 209 6.0 14.0 0.00 0.00 0.00 45 1056.9
20260903133135 89 273 6.0 14.0 0.00 0.00 0.00 45 1056.9
20260903133058 89 258 6.0 14.0 0.00 0.00 0.00 46 1056.9
20260903133032 89 260 6.0 14.0 0.00 0.00 0.00 46 1057.0
20260903133024 89 211 6.0 14.0 0.00 0.00 0.00 45 1056.9
20260903132658 89 208 6.0 13.0 0.00 0.00 0.00 47 1057.0
20260903132635 89 238 6.0 13.0 0.00 0.00 0.00 47 1057.0
20260903132556 89 243 5.0 13.0 0.00 0.00 0.00 47 1056.9
20260903132456 89 196 5.0 13.0 0.00 0.00 0.00 47 1056.9
20260903132357 89 261 5.0 13.0 0.00 0.00 0.00 47 1056.9
20260903132318 89 206 6.0 13.0 0.00 0.00 0.00 47 1057.0
20260903132307 89 220 6.0 13.0 0.00 0.00 0.00 47 1057.0
20260903132300 89 231 6.0 13.0 0.00 0.00 0.00 47 1057.0
20260903132248 89 142 5.0 13.0 0.00 0.00 0.00 47 1057.1
20260903132236 89 188 5.0 12.0 0.00 0.00 0.00 47 1056.9
20260903131738 89 138 5.0 12.0 0.00 0.00 0.00 47 1057.0
20260903131730 89 129 5.0 12.0 0.00 0.00 0.00 47 1057.0
20260903131721 89 227 6.0 12.0 0.00 0.00 0.00 48 1057.0
20260903131348 89 265 5.0 14.0 0.00 0.00 0.00 47 1057.0
20260903131248 89 199 5.0 14.0 0.00 0.00 0.00 48 1057.0
20260903131224 89 167 5.0 14.0 0.00 0.00 0.00 47 1056.9
20260903131216 89 126 5.0 14.0 0.00 0.00 0.00 47 1056.9
20260903131208 89 139 5.0 14.0 0.00 0.00 0.00 47 1056.9
20260903130931 89 118 5.0 14.0 0.00 0.00 0.00 46 1056.9
20260903130923 89 135 5.0 14.0 0.00 0.00 0.00 46 1056.9
20260903130912 89 229 5.0 14.0 0.00 0.00 0.00 46 1057.0
20260903130903 89 172 5.0 14.0 0.00 0.00 0.00 46 1057.0
20260903130855 89 183 5.0 14.0 0.00 0.00 0.00 47 1057.0
20260903130400 89 256 5.0 13.0 0.00 0.00 0.00 46 1057.0
20260903130345 89 197 5.0 13.0 0.00 0.00 0.00 47 1057.0
20260903130337 89 188 5.0 13.0 0.00 0.00 0.00 47 1057.0
20260903130106 89 135 5.0 13.0 0.00 0.00 0.00 46 1057.0
20260903130053 89 70 5.0 13.0 0.00 0.00 0.00 46 1056.9
20260903130041 89 214 5.0 13.0 0.00 0.00 0.00 46 1056.9
20260903130030 89 174 5.0 13.0 0.00 0.00 0.00 46 1056.9
20260903130024 89 186 5.0 13.0 0.00 0.00 0.00 46 1056.9
20260903125752 89 208 5.0 14.0 0.00 0.00 0.00 46 1056.9
20260903125523 89 100 5.0 14.0 0.00 0.00 0.00 47 1056.9
20260903125512 88 222 5.0 14.0 0.00 0.00 0.00 47 1056.9
20260903124936 88 239 6.0 14.0 0.00 0.00 0.00 47 1056.9
20260903124836 88 247 6.0 14.0 0.00 0.00 0.00 47 1057.0
20260903124736 88 227 7.0 19.0 0.00 0.00 0.00 47 1056.9
20260903124716 88 167 6.0 19.0 0.00 0.00 0.00 47 1056.9
20260903124709 88 188 6.0 19.0 0.00 0.00 0.00 47 1056.9
20260903124700 88 168 6.0 19.0 0.00 0.00 0.00 47 1056.9
20260903124428 89 181 6.0 19.0 0.00 0.00 0.00 46 1056.9
20260903124420 89 149 6.0 19.0 0.00 0.00 0.00 46 1057.1
20260903124404 89 157 6.0 19.0 0.00 0.00 0.00 46 1057.0
20260903124352 89 183 5.0 19.0 0.00 0.00 0.00 47 1057.0